| time (UTC) | temp C | wind direction | speed KPH | gust KPH | rain 1hr cm | rain 24hr cm | rain mn cm | humidity % | barometer mb |
| 20260503010027 | 16 | 326 | 6.4 | 14.5 | 0.00 | 0.00 | 0.00 | 51 | 1015.6 |
| 20260503005934 | 16 | 347 | 6.4 | 14.5 | 0.00 | 0.00 | 0.00 | 51 | 1015.6 |
| 20260503005845 | 16 | 342 | 8.0 | 14.5 | 0.00 | 0.00 | 0.00 | 50 | 1015.6 |
| 20260503005711 | 16 | 29 | 9.7 | 16.1 | 0.00 | 0.00 | 0.00 | 50 | 1015.6 |
| 20260503005620 | 16 | 333 | 9.7 | 16.1 | 0.00 | 0.00 | 0.00 | 50 | 1015.6 |
| 20260503005527 | 16 | 344 | 8.0 | 16.1 | 0.00 | 0.00 | 0.00 | 50 | 1015.5 |
| 20260503005414 | 16 | 317 | 6.4 | 16.1 | 0.00 | 0.00 | 0.00 | 50 | 1015.6 |
| 20260503005321 | 16 | 331 | 8.0 | 17.7 | 0.00 | 0.00 | 0.00 | 49 | 1015.6 |
| 20260503005212 | 16 | 342 | 9.7 | 17.7 | 0.00 | 0.00 | 0.00 | 49 | 1015.5 |
| 20260503005119 | 16 | 335 | 11.3 | 17.7 | 0.00 | 0.00 | 0.00 | 49 | 1015.6 |
| 20260503005049 | 16 | 343 | 11.3 | 20.9 | 0.00 | 0.00 | 0.00 | 49 | 1015.6 |
| 20260503004824 | 16 | 346 | 12.9 | 20.9 | 0.00 | 0.00 | 0.00 | 49 | 1015.5 |
| 20260503004714 | 16 | 335 | 12.9 | 20.9 | 0.00 | 0.00 | 0.00 | 48 | 1015.5 |
| 20260503004641 | 16 | 341 | 12.9 | 20.9 | 0.00 | 0.00 | 0.00 | 48 | 1015.5 |
| 20260503004509 | 16 | 355 | 11.3 | 24.1 | 0.00 | 0.00 | 0.00 | 48 | 1015.5 |
| 20260503004416 | 16 | 350 | 9.7 | 24.1 | 0.00 | 0.00 | 0.00 | 48 | 1015.4 |
| 20260503004324 | 16 | 345 | 11.3 | 24.1 | 0.00 | 0.00 | 0.00 | 47 | 1015.4 |
| 20260503004213 | 16 | 339 | 14.5 | 24.1 | 0.00 | 0.00 | 0.00 | 47 | 1015.5 |
| 20260503004123 | 17 | 329 | 12.9 | 24.1 | 0.00 | 0.00 | 0.00 | 47 | 1015.5 |
| 20260503004012 | 17 | 346 | 11.3 | 24.1 | 0.00 | 0.00 | 0.00 | 46 | 1015.5 |
| 20260503003919 | 17 | 9 | 9.7 | 24.1 | 0.00 | 0.00 | 0.00 | 46 | 1015.4 |
| 20260503003826 | 17 | 355 | 11.3 | 24.1 | 0.00 | 0.00 | 0.00 | 45 | 1015.4 |
| 20260503003715 | 17 | 11 | 11.3 | 24.1 | 0.00 | 0.00 | 0.00 | 45 | 1015.5 |
| 20260503003626 | 17 | 39 | 11.3 | 19.3 | 0.00 | 0.00 | 0.00 | 45 | 1015.5 |
| 20260503003556 | 17 | 5 | 11.3 | 19.3 | 0.00 | 0.00 | 0.00 | 44 | 1015.5 |
| 20260503003310 | 17 | 340 | 12.9 | 19.3 | 0.00 | 0.00 | 0.00 | 44 | 1015.4 |
| 20260503003217 | 17 | 348 | 12.9 | 19.3 | 0.00 | 0.00 | 0.00 | 44 | 1015.4 |
| 20260503003143 | 17 | 347 | 14.5 | 19.3 | 0.00 | 0.00 | 0.00 | 44 | 1015.4 |
| 20260503003012 | 17 | 335 | 9.7 | 19.3 | 0.00 | 0.00 | 0.00 | 43 | 1015.3 |
| 20260503002919 | 17 | 339 | 8.0 | 22.5 | 0.00 | 0.00 | 0.00 | 43 | 1015.2 |
| 20260503002826 | 17 | 322 | 8.0 | 22.5 | 0.00 | 0.00 | 0.00 | 43 | 1015.2 |
| 20260503002713 | 17 | 317 | 8.0 | 22.5 | 0.00 | 0.00 | 0.00 | 43 | 1015.3 |
| 20260503002620 | 17 | 306 | 8.0 | 22.5 | 0.00 | 0.00 | 0.00 | 43 | 1015.3 |
| 20260503002548 | 17 | 331 | 11.3 | 22.5 | 0.00 | 0.00 | 0.00 | 43 | 1015.1 |
| 20260503002417 | 17 | 333 | 11.3 | 22.5 | 0.00 | 0.00 | 0.00 | 43 | 1015.1 |
| 20260503002326 | 17 | 346 | 9.7 | 22.5 | 0.00 | 0.00 | 0.00 | 43 | 1015.1 |
| 20260503002213 | 17 | 355 | 9.7 | 22.5 | 0.00 | 0.00 | 0.00 | 42 | 1015.0 |
| 20260503002120 | 17 | 318 | 11.3 | 22.5 | 0.00 | 0.00 | 0.00 | 42 | 1015.0 |
| 20260503002053 | 17 | 321 | 11.3 | 22.5 | 0.00 | 0.00 | 0.00 | 42 | 1015.1 |
| 20260503001827 | 17 | 281 | 12.9 | 22.5 | 0.00 | 0.00 | 0.00 | 42 | 1015.0 |
| 20260503001734 | 17 | 309 | 14.5 | 22.5 | 0.00 | 0.00 | 0.00 | 42 | 1015.0 |
| 20260503001622 | 17 | 325 | 12.9 | 22.5 | 0.00 | 0.00 | 0.00 | 42 | 1015.0 |
| 20260503001530 | 17 | 309 | 11.3 | 22.5 | 0.00 | 0.00 | 0.00 | 42 | 1015.0 |
| 20260503001417 | 17 | 316 | 12.9 | 20.9 | 0.00 | 0.00 | 0.00 | 42 | 1015.0 |
| 20260503001344 | 17 | 269 | 12.9 | 20.9 | 0.00 | 0.00 | 0.00 | 42 | 1015.0 |
| 20260503001214 | 17 | 355 | 8.0 | 19.3 | 0.00 | 0.00 | 0.00 | 42 | 1014.9 |
| 20260503001122 | 17 | 336 | 8.0 | 19.3 | 0.00 | 0.00 | 0.00 | 42 | 1014.9 |
| 20260503001029 | 17 | 340 | 9.7 | 19.3 | 0.00 | 0.00 | 0.00 | 42 | 1014.9 |
| 20260503000936 | 17 | 344 | 8.0 | 19.3 | 0.00 | 0.00 | 0.00 | 42 | 1014.9 |
| 20260503000822 | 17 | 271 | 8.0 | 19.3 | 0.00 | 0.00 | 0.00 | 42 | 1014.9 |
| 20260503000749 | 17 | 298 | 8.0 | 14.5 | 0.00 | 0.00 | 0.00 | 42 | 1014.9 |
| 20260503000616 | 17 | 317 | 8.0 | 16.1 | 0.00 | 0.00 | 0.00 | 42 | 1014.8 |
| 20260503000550 | 18 | 327 | 8.0 | 16.1 | 0.00 | 0.00 | 0.00 | 42 | 1014.8 |
| 20260503000323 | 18 | 292 | 9.7 | 17.7 | 0.00 | 0.00 | 0.00 | 42 | 1014.9 |
| 20260503000211 | 18 | 320 | 8.0 | 17.7 | 0.00 | 0.00 | 0.00 | 42 | 1014.9 |
| 20260503000118 | 18 | 286 | 6.4 | 20.9 | 0.00 | 0.00 | 0.00 | 42 | 1014.9 |
| 20260503000009 | 18 | 313 | 6.4 | 20.9 | 0.00 | 0.00 | 0.00 | 41 | 1014.8 |
| 20260502235917 | 18 | 323 | 6.4 | 20.9 | 0.00 | 0.00 | 0.00 | 41 | 1014.8 |
| 20260502235844 | 18 | 302 | 6.4 | 20.9 | 0.00 | 0.00 | 0.00 | 41 | 1014.8 |
| 20260502235710 | 18 | 323 | 9.7 | 20.9 | 0.00 | 0.00 | 0.00 | 40 | 1014.8 |
| 20260502235638 | 18 | 320 | 11.3 | 20.9 | 0.00 | 0.00 | 0.00 | 40 | 1014.7 |
| 20260502235525 | 18 | 327 | 9.7 | 20.9 | 0.00 | 0.00 | 0.00 | 40 | 1014.7 |
| 20260502235416 | 18 | 302 | 9.7 | 20.9 | 0.00 | 0.00 | 0.00 | 40 | 1014.8 |
| 20260502235323 | 18 | 343 | 11.3 | 20.9 | 0.00 | 0.00 | 0.00 | 40 | 1014.8 |
| 20260502235211 | 18 | 341 | 11.3 | 20.9 | 0.00 | 0.00 | 0.00 | 40 | 1014.8 |
| 20260502235119 | 18 | 343 | 11.3 | 19.3 | 0.00 | 0.00 | 0.00 | 40 | 1014.8 |
| 20260502235051 | 18 | 328 | 11.3 | 19.3 | 0.00 | 0.00 | 0.00 | 40 | 1014.8 |
| 20260502234827 | 18 | 285 | 12.9 | 19.3 | 0.00 | 0.00 | 0.00 | 39 | 1014.7 |
| 20260502234735 | 18 | 302 | 12.9 | 19.3 | 0.00 | 0.00 | 0.00 | 40 | 1014.7 |
| 20260502234622 | 18 | 294 | 12.9 | 19.3 | 0.00 | 0.00 | 0.00 | 40 | 1014.7 |
| 20260502234509 | 18 | 315 | 14.5 | 19.3 | 0.00 | 0.00 | 0.00 | 40 | 1014.6 |
| 20260502234416 | 18 | 323 | 14.5 | 19.3 | 0.00 | 0.00 | 0.00 | 40 | 1014.6 |
| 20260502234324 | 18 | 317 | 14.5 | 22.5 | 0.00 | 0.00 | 0.00 | 40 | 1014.6 |
| 20260502234216 | 18 | 323 | 12.9 | 22.5 | 0.00 | 0.00 | 0.00 | 40 | 1014.7 |
| 20260502234124 | 18 | 321 | 11.3 | 22.5 | 0.00 | 0.00 | 0.00 | 40 | 1014.7 |
| 20260502234012 | 18 | 312 | 9.7 | 22.5 | 0.00 | 0.00 | 0.00 | 40 | 1014.6 |
| 20260502233919 | 18 | 336 | 9.7 | 22.5 | 0.00 | 0.00 | 0.00 | 40 | 1014.6 |
| 20260502233827 | 18 | 331 | 9.7 | 22.5 | 0.00 | 0.00 | 0.00 | 40 | 1014.6 |
| 20260502233719 | 18 | 320 | 11.3 | 22.5 | 0.00 | 0.00 | 0.00 | 40 | 1014.6 |
| 20260502233626 | 18 | 313 | 12.9 | 22.5 | 0.00 | 0.00 | 0.00 | 40 | 1014.6 |
| 20260502233556 | 18 | 299 | 12.9 | 20.9 | 0.00 | 0.00 | 0.00 | 40 | 1014.5 |
| 20260502233310 | 18 | 314 | 9.7 | 20.9 | 0.00 | 0.00 | 0.00 | 40 | 1014.6 |
| 20260502233220 | 18 | 292 | 9.7 | 20.9 | 0.00 | 0.00 | 0.00 | 40 | 1014.6 |
| 20260502233127 | 18 | 307 | 11.3 | 20.9 | 0.00 | 0.00 | 0.00 | 41 | 1014.6 |
| 20260502233015 | 18 | 317 | 14.5 | 20.9 | 0.00 | 0.00 | 0.00 | 40 | 1014.5 |
| 20260502232922 | 18 | 311 | 12.9 | 20.9 | 0.00 | 0.00 | 0.00 | 40 | 1014.5 |
| 20260502232809 | 18 | 325 | 11.3 | 17.7 | 0.00 | 0.00 | 0.00 | 41 | 1014.6 |
| 20260502232718 | 18 | 319 | 11.3 | 17.7 | 0.00 | 0.00 | 0.00 | 40 | 1014.5 |
| 20260502232610 | 18 | 321 | 11.3 | 17.7 | 0.00 | 0.00 | 0.00 | 40 | 1014.5 |
| 20260502232517 | 18 | 275 | 12.9 | 17.7 | 0.00 | 0.00 | 0.00 | 40 | 1014.5 |
| 20260502232445 | 18 | 324 | 9.7 | 17.7 | 0.00 | 0.00 | 0.00 | 41 | 1014.5 |
| 20260502232310 | 18 | 312 | 8.0 | 17.7 | 0.00 | 0.00 | 0.00 | 40 | 1014.5 |
| 20260502232217 | 18 | 327 | 8.0 | 17.7 | 0.00 | 0.00 | 0.00 | 40 | 1014.4 |
| 20260502232123 | 18 | 288 | 9.7 | 17.7 | 0.00 | 0.00 | 0.00 | 40 | 1014.4 |
| 20260502232058 | 18 | 315 | 8.0 | 17.7 | 0.00 | 0.00 | 0.00 | 40 | 1014.4 |
| 20260502231812 | 18 | 317 | 6.4 | 19.3 | 0.00 | 0.00 | 0.00 | 40 | 1014.3 |
| 20260502231720 | 18 | 315 | 8.0 | 19.3 | 0.00 | 0.00 | 0.00 | 39 | 1014.3 |
| 20260502231627 | 18 | 300 | 9.7 | 19.3 | 0.00 | 0.00 | 0.00 | 39 | 1014.4 |
| 20260502231518 | 18 | 284 | 9.7 | 19.3 | 0.00 | 0.00 | 0.00 | 39 | 1014.5 |
| 20260502231424 | 18 | 302 | 9.7 | 19.3 | 0.00 | 0.00 | 0.00 | 40 | 1014.5 |
| 20260502231330 | 18 | 307 | 8.0 | 19.3 | 0.00 | 0.00 | 0.00 | 39 | 1014.5 |
| 20260502231235 | 18 | 329 | 11.3 | 19.3 | 0.00 | 0.00 | 0.00 | 39 | 1014.5 |
| 20260502231121 | 18 | 332 | 12.9 | 19.3 | 0.00 | 0.00 | 0.00 | 38 | 1014.5 |
| 20260502231010 | 18 | 338 | 12.9 | 19.3 | 0.00 | 0.00 | 0.00 | 38 | 1014.4 |
| 20260502230922 | 19 | 325 | 11.3 | 19.3 | 0.00 | 0.00 | 0.00 | 38 | 1014.4 |
| 20260502230848 | 19 | 286 | 8.0 | 17.7 | 0.00 | 0.00 | 0.00 | 39 | 1014.4 |
| 20260502230715 | 19 | 300 | 6.4 | 17.7 | 0.00 | 0.00 | 0.00 | 38 | 1014.5 |
| 20260502230623 | 19 | 344 | 6.4 | 17.7 | 0.00 | 0.00 | 0.00 | 38 | 1014.5 |
| 20260502230554 | 19 | 342 | 6.4 | 17.7 | 0.00 | 0.00 | 0.00 | 38 | 1014.5 |
| 20260502230332 | 19 | 355 | 9.7 | 17.7 | 0.00 | 0.00 | 0.00 | 37 | 1014.4 |
| 20260502230219 | 19 | 303 | 12.9 | 17.7 | 0.00 | 0.00 | 0.00 | 36 | 1014.4 |
| 20260502230147 | 19 | 281 | 12.9 | 17.7 | 0.00 | 0.00 | 0.00 | 36 | 1014.4 |
| 20260502230012 | 19 | 302 | 11.3 | 17.7 | 0.00 | 0.00 | 0.00 | 36 | 1014.4 |
| 20260502225920 | 19 | 257 | 11.3 | 16.1 | 0.00 | 0.00 | 0.00 | 36 | 1014.4 |
| 20260502225809 | 20 | 360 | 9.7 | 19.3 | 0.00 | 0.00 | 0.00 | 36 | 1014.5 |
| 20260502225721 | 20 | 297 | 9.7 | 19.3 | 0.00 | 0.00 | 0.00 | 36 | 1014.5 |
| 20260502225628 | 20 | 332 | 9.7 | 19.3 | 0.00 | 0.00 | 0.00 | 36 | 1014.5 |
| 20260502225515 | 20 | 328 | 11.3 | 19.3 | 0.00 | 0.00 | 0.00 | 36 | 1014.5 |
| 20260502225422 | 20 | 318 | 11.3 | 19.3 | 0.00 | 0.00 | 0.00 | 36 | 1014.5 |
| 20260502225309 | 20 | 272 | 8.0 | 19.3 | 0.00 | 0.00 | 0.00 | 36 | 1014.5 |
| 20260502225217 | 20 | 303 | 9.7 | 19.3 | 0.00 | 0.00 | 0.00 | 36 | 1014.5 |
| 20260502225128 | 20 | 307 | 11.3 | 19.3 | 0.00 | 0.00 | 0.00 | 35 | 1014.5 |
| 20260502225058 | 20 | 323 | 11.3 | 20.9 | 0.00 | 0.00 | 0.00 | 35 | 1014.4 |
| 20260502224811 | 20 | 293 | 11.3 | 20.9 | 0.00 | 0.00 | 0.00 | 35 | 1014.4 |
| 20260502224739 | 20 | 286 | 12.9 | 20.9 | 0.00 | 0.00 | 0.00 | 36 | 1014.4 |
| 20260502224610 | 20 | 333 | 11.3 | 20.9 | 0.00 | 0.00 | 0.00 | 35 | 1014.4 |
| 20260502224517 | 20 | 355 | 9.7 | 20.9 | 0.00 | 0.00 | 0.00 | 35 | 1014.4 |
| 20260502224425 | 20 | 317 | 11.3 | 20.9 | 0.00 | 0.00 | 0.00 | 35 | 1014.4 |
| 20260502224311 | 20 | 323 | 14.5 | 25.7 | 0.00 | 0.00 | 0.00 | 34 | 1014.5 |
| 20260502224219 | 20 | 306 | 12.9 | 25.7 | 0.00 | 0.00 | 0.00 | 35 | 1014.4 |
| 20260502224126 | 20 | 344 | 9.7 | 25.7 | 0.00 | 0.00 | 0.00 | 36 | 1014.4 |
| 20260502224016 | 20 | 324 | 6.4 | 25.7 | 0.00 | 0.00 | 0.00 | 35 | 1014.4 |
| 20260502223924 | 20 | 286 | 6.4 | 25.7 | 0.00 | 0.00 | 0.00 | 35 | 1014.4 |
| 20260502223811 | 20 | 360 | 8.0 | 25.7 | 0.00 | 0.00 | 0.00 | 35 | 1014.3 |
| 20260502223719 | 20 | 311 | 12.9 | 25.7 | 0.00 | 0.00 | 0.00 | 35 | 1014.3 |
| 20260502223648 | 20 | 272 | 16.1 | 25.7 | 0.00 | 0.00 | 0.00 | 35 | 1014.3 |
| 20260502223601 | 20 | 271 | 17.7 | 25.7 | 0.00 | 0.00 | 0.00 | 35 | 1014.3 |
| 20260502223314 | 20 | 340 | 14.5 | 24.1 | 0.00 | 0.00 | 0.00 | 35 | 1014.3 |
| 20260502223222 | 20 | 326 | 14.5 | 24.1 | 0.00 | 0.00 | 0.00 | 35 | 1014.3 |
| 20260502223109 | 20 | 326 | 14.5 | 24.1 | 0.00 | 0.00 | 0.00 | 34 | 1014.3 |
| 20260502223016 | 20 | 345 | 14.5 | 24.1 | 0.00 | 0.00 | 0.00 | 34 | 1014.4 |
| 20260502222923 | 20 | 333 | 12.9 | 24.1 | 0.00 | 0.00 | 0.00 | 35 | 1014.4 |
| 20260502222814 | 20 | 316 | 12.9 | 24.1 | 0.00 | 0.00 | 0.00 | 35 | 1014.3 |
| 20260502222720 | 20 | 313 | 16.1 | 24.1 | 0.00 | 0.00 | 0.00 | 35 | 1014.3 |
| 20260502222627 | 20 | 322 | 17.7 | 24.1 | 0.00 | 0.00 | 0.00 | 35 | 1014.4 |
| 20260502222514 | 20 | 317 | 16.1 | 24.1 | 0.00 | 0.00 | 0.00 | 35 | 1014.3 |
| 20260502222421 | 20 | 277 | 14.5 | 24.1 | 0.00 | 0.00 | 0.00 | 35 | 1014.3 |
| 20260502222333 | 20 | 300 | 14.5 | 24.1 | 0.00 | 0.00 | 0.00 | 35 | 1014.3 |
| 20260502222219 | 20 | 249 | 14.5 | 24.1 | 0.00 | 0.00 | 0.00 | 35 | 1014.2 |
| 20260502222146 | 20 | 271 | 12.9 | 22.5 | 0.00 | 0.00 | 0.00 | 36 | 1014.2 |
| 20260502222055 | 20 | 294 | 11.3 | 22.5 | 0.00 | 0.00 | 0.00 | 36 | 1014.3 |
| 20260502221808 | 20 | 250 | 11.3 | 22.5 | 0.00 | 0.00 | 0.00 | 36 | 1014.3 |
| 20260502221719 | 20 | 300 | 12.9 | 22.5 | 0.00 | 0.00 | 0.00 | 35 | 1014.4 |
| 20260502221626 | 20 | 302 | 9.7 | 22.5 | 0.00 | 0.00 | 0.00 | 36 | 1014.4 |
| 20260502221513 | 20 | 338 | 9.7 | 22.5 | 0.00 | 0.00 | 0.00 | 36 | 1014.4 |
| 20260502221419 | 20 | 264 | 11.3 | 25.7 | 0.00 | 0.00 | 0.00 | 36 | 1014.4 |
| 20260502221327 | 20 | 288 | 12.9 | 25.7 | 0.00 | 0.00 | 0.00 | 35 | 1014.3 |
| 20260502221213 | 20 | 304 | 12.9 | 25.7 | 0.00 | 0.00 | 0.00 | 35 | 1014.3 |
| 20260502221124 | 20 | 285 | 14.5 | 30.6 | 0.00 | 0.00 | 0.00 | 35 | 1014.3 |
| 20260502221011 | 20 | 311 | 14.5 | 30.6 | 0.00 | 0.00 | 0.00 | 35 | 1014.4 |
| 20260502220918 | 20 | 297 | 11.3 | 30.6 | 0.00 | 0.00 | 0.00 | 35 | 1014.3 |
| 20260502220825 | 20 | 302 | 11.3 | 30.6 | 0.00 | 0.00 | 0.00 | 35 | 1014.3 |
| 20260502220712 | 20 | 310 | 14.5 | 30.6 | 0.00 | 0.00 | 0.00 | 35 | 1014.4 |
| 20260502220620 | 20 | 324 | 14.5 | 30.6 | 0.00 | 0.00 | 0.00 | 35 | 1014.4 |
| 20260502220554 | 21 | 306 | 16.1 | 30.6 | 0.00 | 0.00 | 0.00 | 35 | 1014.3 |
| 20260502220327 | 21 | 334 | 16.1 | 30.6 | 0.00 | 0.00 | 0.00 | 35 | 1014.3 |
| 20260502220234 | 21 | 348 | 14.5 | 24.1 | 0.00 | 0.00 | 0.00 | 34 | 1014.3 |
| 20260502220120 | 20 | 310 | 11.3 | 24.1 | 0.00 | 0.00 | 0.00 | 35 | 1014.3 |
| 20260502220011 | 20 | 284 | 9.7 | 24.1 | 0.00 | 0.00 | 0.00 | 36 | 1014.3 |
| 20260502215920 | 20 | 321 | 12.9 | 24.1 | 0.00 | 0.00 | 0.00 | 36 | 1014.3 |
| 20260502215826 | 20 | 5 | 11.3 | 24.1 | 0.00 | 0.00 | 0.00 | 35 | 1014.2 |
| 20260502215715 | 20 | 320 | 11.3 | 24.1 | 0.00 | 0.00 | 0.00 | 35 | 1014.3 |
| 20260502215623 | 20 | 293 | 12.9 | 24.1 | 0.00 | 0.00 | 0.00 | 34 | 1014.3 |
| 20260502215531 | 20 | 271 | 11.3 | 24.1 | 0.00 | 0.00 | 0.00 | 36 | 1014.3 |
| 20260502215436 | 20 | 347 | 8.0 | 22.5 | 0.00 | 0.00 | 0.00 | 35 | 1014.2 |
| 20260502215328 | 20 | 286 | 8.0 | 22.5 | 0.00 | 0.00 | 0.00 | 36 | 1014.2 |
| 20260502215235 | 20 | 311 | 8.0 | 22.5 | 0.00 | 0.00 | 0.00 | 36 | 1014.3 |
| 20260502215203 | 20 | 308 | 11.3 | 22.5 | 0.00 | 0.00 | 0.00 | 36 | 1014.2 |
| 20260502215112 | 20 | 290 | 12.9 | 22.5 | 0.00 | 0.00 | 0.00 | 36 | 1014.3 |
| 20260502214825 | 20 | 329 | 16.1 | 22.5 | 0.00 | 0.00 | 0.00 | 37 | 1014.3 |
| 20260502214715 | 20 | 331 | 16.1 | 22.5 | 0.00 | 0.00 | 0.00 | 37 | 1014.2 |
| 20260502214623 | 20 | 5 | 11.3 | 20.9 | 0.00 | 0.00 | 0.00 | 36 | 1014.2 |
| 20260502214529 | 20 | 316 | 12.9 | 20.9 | 0.00 | 0.00 | 0.00 | 37 | 1014.1 |
| 20260502214416 | 20 | 331 | 16.1 | 20.9 | 0.00 | 0.00 | 0.00 | 37 | 1014.2 |
| 20260502214323 | 20 | 340 | 16.1 | 20.9 | 0.00 | 0.00 | 0.00 | 36 | 1014.2 |
| 20260502214210 | 20 | 335 | 16.1 | 25.7 | 0.00 | 0.00 | 0.00 | 36 | 1014.1 |
| 20260502214120 | 20 | 318 | 12.9 | 25.7 | 0.00 | 0.00 | 0.00 | 37 | 1014.1 |
| 20260502214027 | 20 | 317 | 9.7 | 25.7 | 0.00 | 0.00 | 0.00 | 37 | 1014.1 |
| 20260502213934 | 20 | 337 | 9.7 | 25.7 | 0.00 | 0.00 | 0.00 | 38 | 1014.1 |
| 20260502213820 | 20 | 323 | 11.3 | 25.7 | 0.00 | 0.00 | 0.00 | 37 | 1014.1 |
| 20260502213748 | 20 | 344 | 14.5 | 25.7 | 0.00 | 0.00 | 0.00 | 37 | 1014.2 |
| 20260502213615 | 20 | 316 | 16.1 | 25.7 | 0.00 | 0.00 | 0.00 | 36 | 1014.1 |
| 20260502213550 | 20 | 314 | 17.7 | 25.7 | 0.00 | 0.00 | 0.00 | 36 | 1014.1 |
| 20260502213324 | 20 | 360 | 16.1 | 25.7 | 0.00 | 0.00 | 0.00 | 35 | 1014.1 |
| 20260502213211 | 20 | 300 | 16.1 | 25.7 | 0.00 | 0.00 | 0.00 | 36 | 1014.1 |
| 20260502213140 | 20 | 301 | 17.7 | 25.7 | 0.00 | 0.00 | 0.00 | 36 | 1014.1 |
| 20260502213025 | 20 | 341 | 17.7 | 25.7 | 0.00 | 0.00 | 0.00 | 36 | 1014.1 |
| 20260502212918 | 20 | 291 | 11.3 | 22.5 | 0.00 | 0.00 | 0.00 | 35 | 1014.0 |
| 20260502212825 | 20 | 360 | 9.7 | 22.5 | 0.00 | 0.00 | 0.00 | 35 | 1014.0 |
| 20260502212711 | 21 | 360 | 12.9 | 24.1 | 0.00 | 0.00 | 0.00 | 35 | 1014.0 |
| 20260502212619 | 21 | 313 | 11.3 | 24.1 | 0.00 | 0.00 | 0.00 | 35 | 1014.0 |
| 20260502212528 | 21 | 271 | 8.0 | 24.1 | 0.00 | 0.00 | 0.00 | 36 | 1014.0 |
| 20260502212435 | 21 | 234 | 8.0 | 24.1 | 0.00 | 0.00 | 0.00 | 36 | 1014.0 |
| 20260502212325 | 21 | 245 | 11.3 | 24.1 | 0.00 | 0.00 | 0.00 | 36 | 1014.0 |
| 20260502212212 | 21 | 331 | 16.1 | 24.1 | 0.00 | 0.00 | 0.00 | 37 | 1014.0 |
| 20260502212120 | 21 | 5 | 17.7 | 24.1 | 0.00 | 0.00 | 0.00 | 36 | 1014.0 |
| 20260502212050 | 21 | 360 | 17.7 | 25.7 | 0.00 | 0.00 | 0.00 | 36 | 1014.0 |
| 20260502211828 | 20 | 309 | 16.1 | 25.7 | 0.00 | 0.00 | 0.00 | 36 | 1014.1 |
| 20260502211715 | 20 | 338 | 16.1 | 25.7 | 0.00 | 0.00 | 0.00 | 35 | 1014.1 |
| 20260502211623 | 20 | 308 | 16.1 | 25.7 | 0.00 | 0.00 | 0.00 | 35 | 1014.1 |
| 20260502211512 | 20 | 337 | 16.1 | 25.7 | 0.00 | 0.00 | 0.00 | 35 | 1014.1 |
| 20260502211419 | 20 | 329 | 19.3 | 25.7 | 0.00 | 0.00 | 0.00 | 35 | 1014.2 |
| 20260502211310 | 20 | 355 | 17.7 | 25.7 | 0.00 | 0.00 | 0.00 | 35 | 1014.2 |
| 20260502211217 | 20 | 351 | 16.1 | 25.7 | 0.00 | 0.00 | 0.00 | 35 | 1014.2 |
| 20260502211122 | 20 | 290 | 16.1 | 25.7 | 0.00 | 0.00 | 0.00 | 36 | 1014.2 |
| 20260502211009 | 20 | 338 | 17.7 | 25.7 | 0.00 | 0.00 | 0.00 | 37 | 1014.2 |
| 20260502210917 | 20 | 328 | 17.7 | 25.7 | 0.00 | 0.00 | 0.00 | 38 | 1014.3 |
| 20260502210825 | 20 | 309 | 16.1 | 24.1 | 0.00 | 0.00 | 0.00 | 38 | 1014.3 |
| 20260502210716 | 20 | 21 | 16.1 | 24.1 | 0.00 | 0.00 | 0.00 | 38 | 1014.2 |
| 20260502210643 | 20 | 25 | 16.1 | 24.1 | 0.00 | 0.00 | 0.00 | 38 | 1014.2 |
| 20260502210553 | 20 | 355 | 16.1 | 27.4 | 0.00 | 0.00 | 0.00 | 37 | 1014.3 |
| 20260502210346 | 20 | 333 | 16.1 | 27.4 | 0.00 | 0.00 | 0.00 | 37 | 1014.2 |
| 20260502210213 | 20 | 5 | 14.5 | 27.4 | 0.00 | 0.00 | 0.00 | 36 | 1014.2 |
| 20260502210120 | 20 | 336 | 16.1 | 27.4 | 0.00 | 0.00 | 0.00 | 36 | 1014.2 |
| 20260502210031 | 20 | 328 | 16.1 | 27.4 | 0.00 | 0.00 | 0.00 | 37 | 1014.3 |
| 20260502205918 | 20 | 338 | 17.7 | 29.0 | 0.00 | 0.00 | 0.00 | 37 | 1014.2 |
| 20260502205823 | 20 | 310 | 17.7 | 29.0 | 0.00 | 0.00 | 0.00 | 38 | 1014.2 |
| 20260502205711 | 20 | 19 | 17.7 | 29.0 | 0.00 | 0.00 | 0.00 | 38 | 1014.3 |
| 20260502205617 | 20 | 5 | 20.9 | 29.0 | 0.00 | 0.00 | 0.00 | 39 | 1014.3 |
| 20260502205525 | 20 | 342 | 19.3 | 29.0 | 0.00 | 0.00 | 0.00 | 37 | 1014.3 |
| 20260502205437 | 20 | 344 | 17.7 | 29.0 | 0.00 | 0.00 | 0.00 | 36 | 1014.3 |
| 20260502205323 | 20 | 340 | 19.3 | 29.0 | 0.00 | 0.00 | 0.00 | 36 | 1014.3 |
| 20260502205211 | 20 | 19 | 19.3 | 29.0 | 0.00 | 0.00 | 0.00 | 36 | 1014.2 |
| 20260502205119 | 20 | 355 | 19.3 | 27.4 | 0.00 | 0.00 | 0.00 | 36 | 1014.3 |
| 20260502205050 | 20 | 336 | 19.3 | 27.4 | 0.00 | 0.00 | 0.00 | 35 | 1014.3 |
| 20260502204827 | 21 | 331 | 14.5 | 27.4 | 0.00 | 0.00 | 0.00 | 35 | 1014.3 |
| 20260502204715 | 21 | 315 | 11.3 | 27.4 | 0.00 | 0.00 | 0.00 | 35 | 1014.3 |
| 20260502204622 | 21 | 327 | 14.5 | 27.4 | 0.00 | 0.00 | 0.00 | 36 | 1014.3 |
| 20260502204511 | 21 | 273 | 17.7 | 32.2 | 0.00 | 0.00 | 0.00 | 35 | 1014.2 |
| 20260502204418 | 21 | 271 | 17.7 | 32.2 | 0.00 | 0.00 | 0.00 | 35 | 1014.3 |
| 20260502204345 | 21 | 311 | 17.7 | 32.2 | 0.00 | 0.00 | 0.00 | 35 | 1014.3 |
| 20260502204215 | 21 | 333 | 19.3 | 32.2 | 0.00 | 0.00 | 0.00 | 34 | 1014.3 |
| 20260502204143 | 21 | 337 | 17.7 | 32.2 | 0.00 | 0.00 | 0.00 | 34 | 1014.3 |
| 20260502204028 | 21 | 302 | 14.5 | 35.4 | 0.00 | 0.00 | 0.00 | 35 | 1014.3 |
| 20260502203914 | 21 | 297 | 14.5 | 35.4 | 0.00 | 0.00 | 0.00 | 35 | 1014.3 |
| 20260502203842 | 21 | 319 | 19.3 | 35.4 | 0.00 | 0.00 | 0.00 | 34 | 1014.3 |
| 20260502203747 | 21 | 308 | 20.9 | 35.4 | 0.00 | 0.00 | 0.00 | 34 | 1014.3 |
| 20260502203613 | 21 | 296 | 19.3 | 35.4 | 0.00 | 0.00 | 0.00 | 35 | 1014.3 |
| 20260502203547 | 21 | 294 | 19.3 | 35.4 | 0.00 | 0.00 | 0.00 | 35 | 1014.3 |
| 20260502203320 | 21 | 346 | 22.5 | 35.4 | 0.00 | 0.00 | 0.00 | 35 | 1014.4 |
| 20260502203226 | 21 | 342 | 22.5 | 35.4 | 0.00 | 0.00 | 0.00 | 34 | 1014.2 |
| 20260502203114 | 21 | 344 | 19.3 | 30.6 | 0.00 | 0.00 | 0.00 | 35 | 1014.3 |
| 20260502203022 | 21 | 35 | 17.7 | 30.6 | 0.00 | 0.00 | 0.00 | 34 | 1014.3 |
| 20260502202913 | 21 | 323 | 12.9 | 27.4 | 0.00 | 0.00 | 0.00 | 33 | 1014.4 |
| 20260502202820 | 21 | 315 | 11.3 | 24.1 | 0.00 | 0.00 | 0.00 | 33 | 1014.4 |
| 20260502202748 | 21 | 313 | 14.5 | 30.6 | 0.00 | 0.00 | 0.00 | 33 | 1014.4 |
| 20260502202613 | 21 | 270 | 14.5 | 30.6 | 0.00 | 0.00 | 0.00 | 34 | 1014.6 |
| 20260502202520 | 21 | 302 | 12.9 | 30.6 | 0.00 | 0.00 | 0.00 | 35 | 1014.6 |
| 20260502202449 | 21 | 317 | 12.9 | 30.6 | 0.00 | 0.00 | 0.00 | 36 | 1014.5 |
| 20260502202339 | 21 | 360 | 14.5 | 30.6 | 0.00 | 0.00 | 0.00 | 37 | 1014.4 |
| 20260502202227 | 21 | 333 | 16.1 | 30.6 | 0.00 | 0.00 | 0.00 | 36 | 1014.4 |
| 20260502202114 | 21 | 325 | 19.3 | 30.6 | 0.00 | 0.00 | 0.00 | 37 | 1014.5 |
| 20260502202043 | 21 | 355 | 17.7 | 30.6 | 0.00 | 0.00 | 0.00 | 36 | 1014.5 |
| 20260502201817 | 21 | 328 | 16.1 | 29.0 | 0.00 | 0.00 | 0.00 | 37 | 1014.5 |
| 20260502201710 | 21 | 317 | 16.1 | 29.0 | 0.00 | 0.00 | 0.00 | 37 | 1014.5 |
| 20260502201617 | 21 | 333 | 17.7 | 29.0 | 0.00 | 0.00 | 0.00 | 35 | 1014.6 |
| 20260502201545 | 20 | 320 | 17.7 | 29.0 | 0.00 | 0.00 | 0.00 | 36 | 1014.6 |
| 20260502201412 | 20 | 334 | 12.9 | 27.4 | 0.00 | 0.00 | 0.00 | 36 | 1014.6 |
| 20260502201340 | 20 | 333 | 12.9 | 27.4 | 0.00 | 0.00 | 0.00 | 35 | 1014.6 |
| 20260502201227 | 20 | 323 | 14.5 | 27.4 | 0.00 | 0.00 | 0.00 | 36 | 1014.6 |
| 20260502201138 | 20 | 350 | 16.1 | 27.4 | 0.00 | 0.00 | 0.00 | 35 | 1014.6 |
| 20260502201024 | 20 | 342 | 16.1 | 27.4 | 0.00 | 0.00 | 0.00 | 35 | 1014.6 |
| 20260502200930 | 21 | 346 | 19.3 | 27.4 | 0.00 | 0.00 | 0.00 | 34 | 1014.6 |
| 20260502200815 | 21 | 320 | 20.9 | 27.4 | 0.00 | 0.00 | 0.00 | 33 | 1014.6 |
| 20260502200722 | 21 | 326 | 19.3 | 27.4 | 0.00 | 0.00 | 0.00 | 34 | 1014.6 |
| 20260502200610 | 21 | 295 | 17.7 | 27.4 | 0.00 | 0.00 | 0.00 | 35 | 1014.5 |
| 20260502200545 | 21 | 323 | 16.1 | 27.4 | 0.00 | 0.00 | 0.00 | 33 | 1014.5 |
| 20260502200320 | 21 | 316 | 16.1 | 27.4 | 0.00 | 0.00 | 0.00 | 33 | 1014.4 |
| 20260502200248 | 21 | 297 | 16.1 | 27.4 | 0.00 | 0.00 | 0.00 | 35 | 1014.6 |
| 20260502200113 | 21 | 336 | 17.7 | 27.4 | 0.00 | 0.00 | 0.00 | 34 | 1014.6 |
| 20260502200021 | 21 | 333 | 17.7 | 27.4 | 0.00 | 0.00 | 0.00 | 35 | 1014.6 |
| 20260502195911 | 21 | 335 | 17.7 | 27.4 | 0.00 | 0.00 | 0.00 | 34 | 1014.5 |
| 20260502195818 | 21 | 331 | 19.3 | 27.4 | 0.00 | 0.00 | 0.00 | 35 | 1014.6 |
| 20260502195726 | 21 | 316 | 19.3 | 27.4 | 0.00 | 0.00 | 0.00 | 35 | 1014.6 |
| 20260502195613 | 21 | 338 | 16.1 | 27.4 | 0.00 | 0.00 | 0.00 | 36 | 1014.7 |
| 20260502195521 | 21 | 341 | 14.5 | 22.5 | 0.00 | 0.00 | 0.00 | 35 | 1014.7 |
| 20260502195428 | 21 | 301 | 14.5 | 22.5 | 0.00 | 0.00 | 0.00 | 36 | 1014.6 |
| 20260502195340 | 21 | 349 | 14.5 | 22.5 | 0.00 | 0.00 | 0.00 | 35 | 1014.6 |
| 20260502195227 | 21 | 342 | 14.5 | 24.1 | 0.00 | 0.00 | 0.00 | 35 | 1014.6 |
| 20260502195114 | 21 | 305 | 14.5 | 24.1 | 0.00 | 0.00 | 0.00 | 36 | 1014.6 |
| 20260502195044 | 21 | 325 | 14.5 | 27.4 | 0.00 | 0.00 | 0.00 | 34 | 1014.6 |
| 20260502194817 | 21 | 289 | 12.9 | 27.4 | 0.00 | 0.00 | 0.00 | 36 | 1014.7 |
| 20260502194728 | 21 | 317 | 12.9 | 27.4 | 0.00 | 0.00 | 0.00 | 35 | 1014.7 |
| 20260502194637 | 21 | 336 | 14.5 | 27.4 | 0.00 | 0.00 | 0.00 | 35 | 1014.7 |
| 20260502194523 | 21 | 321 | 16.1 | 27.4 | 0.00 | 0.00 | 0.00 | 36 | 1014.7 |
| 20260502194410 | 21 | 309 | 14.5 | 27.4 | 0.00 | 0.00 | 0.00 | 36 | 1014.8 |
| 20260502194318 | 21 | 333 | 16.1 | 27.4 | 0.00 | 0.00 | 0.00 | 34 | 1014.7 |
| 20260502194210 | 21 | 350 | 19.3 | 27.4 | 0.00 | 0.00 | 0.00 | 34 | 1014.8 |
| 20260502194118 | 21 | 321 | 14.5 | 25.7 | 0.00 | 0.00 | 0.00 | 33 | 1014.7 |
| 20260502194025 | 21 | 347 | 11.3 | 25.7 | 0.00 | 0.00 | 0.00 | 33 | 1014.7 |
| 20260502193913 | 21 | 331 | 11.3 | 25.7 | 0.00 | 0.00 | 0.00 | 33 | 1014.7 |
| 20260502193821 | 21 | 324 | 12.9 | 25.7 | 0.00 | 0.00 | 0.00 | 35 | 1014.7 |
| 20260502193709 | 21 | 336 | 12.9 | 25.7 | 0.00 | 0.00 | 0.00 | 37 | 1014.9 |
| 20260502193621 | 21 | 323 | 11.3 | 27.4 | 0.00 | 0.00 | 0.00 | 36 | 1014.9 |
| 20260502193552 | 21 | 355 | 9.7 | 27.4 | 0.00 | 0.00 | 0.00 | 36 | 1014.8 |
| 20260502193325 | 21 | 360 | 9.7 | 27.4 | 0.00 | 0.00 | 0.00 | 36 | 1014.8 |
| 20260502193232 | 21 | 319 | 11.3 | 27.4 | 0.00 | 0.00 | 0.00 | 36 | 1014.8 |
| 20260502193119 | 21 | 355 | 14.5 | 27.4 | 0.00 | 0.00 | 0.00 | 36 | 1014.9 |
| 20260502193009 | 21 | 321 | 17.7 | 27.4 | 0.00 | 0.00 | 0.00 | 36 | 1014.9 |
| 20260502192918 | 21 | 13 | 19.3 | 27.4 | 0.00 | 0.00 | 0.00 | 35 | 1014.8 |
| 20260502192845 | 21 | 323 | 19.3 | 27.4 | 0.00 | 0.00 | 0.00 | 37 | 1014.8 |
| 20260502192710 | 21 | 16 | 16.1 | 25.7 | 0.00 | 0.00 | 0.00 | 36 | 1014.9 |
| 20260502192617 | 21 | 20 | 17.7 | 25.7 | 0.00 | 0.00 | 0.00 | 35 | 1014.9 |
| 20260502192509 | 21 | 340 | 17.7 | 25.7 | 0.00 | 0.00 | 0.00 | 35 | 1014.8 |
| 20260502192438 | 21 | 340 | 16.1 | 24.1 | 0.00 | 0.00 | 0.00 | 35 | 1014.9 |
| 20260502192324 | 21 | 325 | 12.9 | 24.1 | 0.00 | 0.00 | 0.00 | 35 | 1014.9 |
| 20260502192210 | 21 | 314 | 9.7 | 22.5 | 0.00 | 0.00 | 0.00 | 35 | 1015.0 |
| 20260502192137 | 21 | 325 | 11.3 | 22.5 | 0.00 | 0.00 | 0.00 | 35 | 1014.9 |
| 20260502192046 | 21 | 331 | 11.3 | 22.5 | 0.00 | 0.00 | 0.00 | 36 | 1014.9 |
| 20260502191823 | 21 | 333 | 12.9 | 22.5 | 0.00 | 0.00 | 0.00 | 36 | 1015.0 |
| 20260502191710 | 21 | 32 | 14.5 | 22.5 | 0.00 | 0.00 | 0.00 | 35 | 1015.0 |
| 20260502191618 | 21 | 300 | 14.5 | 22.5 | 0.00 | 0.00 | 0.00 | 36 | 1015.1 |
| 20260502191525 | 21 | 301 | 11.3 | 24.1 | 0.00 | 0.00 | 0.00 | 38 | 1015.1 |
| 20260502191433 | 21 | 306 | 9.7 | 24.1 | 0.00 | 0.00 | 0.00 | 38 | 1015.0 |
| 20260502191340 | 21 | 355 | 11.3 | 29.0 | 0.00 | 0.00 | 0.00 | 36 | 1015.0 |
| 20260502191247 | 21 | 344 | 12.9 | 29.0 | 0.00 | 0.00 | 0.00 | 36 | 1015.0 |
| 20260502191117 | 21 | 342 | 12.9 | 29.0 | 0.00 | 0.00 | 0.00 | 35 | 1015.0 |
| 20260502191045 | 21 | 360 | 14.5 | 29.0 | 0.00 | 0.00 | 0.00 | 34 | 1015.0 |
| 20260502190932 | 21 | 311 | 16.1 | 29.0 | 0.00 | 0.00 | 0.00 | 38 | 1015.0 |
| 20260502190819 | 21 | 355 | 16.1 | 29.0 | 0.00 | 0.00 | 0.00 | 37 | 1015.1 |
| 20260502190726 | 21 | 11 | 17.7 | 29.0 | 0.00 | 0.00 | 0.00 | 36 | 1015.1 |
| 20260502190633 | 21 | 329 | 17.7 | 29.0 | 0.00 | 0.00 | 0.00 | 35 | 1015.1 |
| 20260502190549 | 21 | 332 | 16.1 | 29.0 | 0.00 | 0.00 | 0.00 | 35 | 1015.1 |
| 20260502190323 | 21 | 348 | 16.1 | 29.0 | 0.00 | 0.00 | 0.00 | 36 | 1015.0 |
| 20260502190211 | 21 | 343 | 19.3 | 29.0 | 0.00 | 0.00 | 0.00 | 35 | 1015.1 |
| 20260502190117 | 21 | 331 | 17.7 | 29.0 | 0.00 | 0.00 | 0.00 | 36 | 1015.0 |
| 20260502190024 | 21 | 338 | 17.7 | 25.7 | 0.00 | 0.00 | 0.00 | 36 | 1015.0 |
| 20260502185935 | 21 | 355 | 16.1 | 25.7 | 0.00 | 0.00 | 0.00 | 36 | 1015.0 |
| 20260502185821 | 21 | 15 | 12.9 | 24.1 | 0.00 | 0.00 | 0.00 | 36 | 1015.0 |
| 20260502185749 | 21 | 53 | 12.9 | 24.1 | 0.00 | 0.00 | 0.00 | 38 | 1015.0 |
| 20260502185633 | 21 | 5 | 12.9 | 24.1 | 0.00 | 0.00 | 0.00 | 39 | 1015.0 |
| 20260502185540 | 21 | 315 | 11.3 | 24.1 | 0.00 | 0.00 | 0.00 | 39 | 1015.0 |
| 20260502185447 | 21 | 345 | 9.7 | 24.1 | 0.00 | 0.00 | 0.00 | 39 | 1015.1 |
| 20260502185313 | 21 | 355 | 11.3 | 24.1 | 0.00 | 0.00 | 0.00 | 38 | 1014.9 |
| 20260502185220 | 21 | 355 | 12.9 | 24.1 | 0.00 | 0.00 | 0.00 | 37 | 1014.9 |
| 20260502185152 | 21 | 344 | 12.9 | 24.1 | 0.00 | 0.00 | 0.00 | 37 | 1015.1 |
| 20260502185100 | 20 | 344 | 11.3 | 24.1 | 0.00 | 0.00 | 0.00 | 38 | 1015.2 |
| 20260502184813 | 20 | 333 | 12.9 | 24.1 | 0.00 | 0.00 | 0.00 | 38 | 1015.2 |
| 20260502184720 | 20 | 355 | 14.5 | 24.1 | 0.00 | 0.00 | 0.00 | 40 | 1015.2 |
| 20260502184613 | 20 | 355 | 11.3 | 24.1 | 0.00 | 0.00 | 0.00 | 40 | 1015.2 |
| 20260502184520 | 20 | 337 | 9.7 | 24.1 | 0.00 | 0.00 | 0.00 | 38 | 1015.2 |
| 20260502184427 | 20 | 302 | 9.7 | 24.1 | 0.00 | 0.00 | 0.00 | 38 | 1015.1 |
| 20260502184335 | 20 | 315 | 16.1 | 24.1 | 0.00 | 0.00 | 0.00 | 38 | 1015.2 |
| 20260502184223 | 20 | 337 | 17.7 | 24.1 | 0.00 | 0.00 | 0.00 | 37 | 1015.2 |
| 20260502184109 | 20 | 342 | 17.7 | 24.1 | 0.00 | 0.00 | 0.00 | 37 | 1015.3 |
| 20260502184020 | 20 | 306 | 17.7 | 24.1 | 0.00 | 0.00 | 0.00 | 35 | 1015.3 |
| 20260502183927 | 20 | 327 | 16.1 | 24.1 | 0.00 | 0.00 | 0.00 | 34 | 1015.1 |
| 20260502183814 | 20 | 310 | 16.1 | 24.1 | 0.00 | 0.00 | 0.00 | 36 | 1015.2 |
| 20260502183723 | 20 | 268 | 14.5 | 24.1 | 0.00 | 0.00 | 0.00 | 37 | 1015.2 |
| 20260502183609 | 20 | 345 | 12.9 | 19.3 | 0.00 | 0.00 | 0.00 | 37 | 1015.1 |
| 20260502183544 | 20 | 330 | 12.9 | 19.3 | 0.00 | 0.00 | 0.00 | 40 | 1015.1 |
| 20260502183317 | 20 | 321 | 12.9 | 19.3 | 0.00 | 0.00 | 0.00 | 38 | 1015.2 |
| 20260502183223 | 20 | 326 | 9.7 | 19.3 | 0.00 | 0.00 | 0.00 | 38 | 1015.2 |
| 20260502183132 | 20 | 347 | 6.4 | 19.3 | 0.00 | 0.00 | 0.00 | 40 | 1015.2 |
| 20260502183018 | 20 | 290 | 8.0 | 29.0 | 0.00 | 0.00 | 0.00 | 38 | 1015.2 |
| 20260502182818 | 20 | 329 | 12.9 | 29.0 | 0.00 | 0.00 | 0.00 | 36 | 1015.2 |
| 20260502182725 | 20 | 294 | 12.9 | 29.0 | 0.00 | 0.00 | 0.00 | 39 | 1015.2 |
| 20260502182611 | 20 | 318 | 9.7 | 29.0 | 0.00 | 0.00 | 0.00 | 39 | 1015.2 |
| 20260502182518 | 20 | 319 | 9.7 | 29.0 | 0.00 | 0.00 | 0.00 | 39 | 1015.3 |
| 20260502182425 | 20 | 341 | 11.3 | 29.0 | 0.00 | 0.00 | 0.00 | 40 | 1015.3 |
| 20260502182311 | 20 | 348 | 16.1 | 29.0 | 0.00 | 0.00 | 0.00 | 38 | 1015.3 |
| 20260502182223 | 20 | 360 | 16.1 | 29.0 | 0.00 | 0.00 | 0.00 | 39 | 1015.3 |
| 20260502182131 | 20 | 38 | 16.1 | 29.0 | 0.00 | 0.00 | 0.00 | 38 | 1015.2 |
| 20260502182101 | 20 | 344 | 14.5 | 24.1 | 0.00 | 0.00 | 0.00 | 39 | 1015.3 |
| 20260502181815 | 20 | 360 | 11.3 | 22.5 | 0.00 | 0.00 | 0.00 | 37 | 1015.1 |
| 20260502181727 | 20 | 23 | 9.7 | 24.1 | 0.00 | 0.00 | 0.00 | 37 | 1015.1 |
| 20260502181614 | 20 | 347 | 9.7 | 24.1 | 0.00 | 0.00 | 0.00 | 38 | 1015.2 |
| 20260502181543 | 20 | 347 | 11.3 | 24.1 | 0.00 | 0.00 | 0.00 | 38 | 1015.2 |
| 20260502181410 | 20 | 261 | 14.5 | 24.1 | 0.00 | 0.00 | 0.00 | 38 | 1015.2 |
| 20260502181317 | 20 | 338 | 16.1 | 24.1 | 0.00 | 0.00 | 0.00 | 37 | 1015.2 |
| 20260502181226 | 20 | 11 | 11.3 | 24.1 | 0.00 | 0.00 | 0.00 | 37 | 1015.2 |
| 20260502181118 | 20 | 360 | 8.0 | 24.1 | 0.00 | 0.00 | 0.00 | 38 | 1015.2 |
| 20260502181026 | 20 | 355 | 12.9 | 24.1 | 0.00 | 0.00 | 0.00 | 38 | 1015.2 |
| 20260502180915 | 20 | 18 | 14.5 | 24.1 | 0.00 | 0.00 | 0.00 | 34 | 1015.3 |
| 20260502180821 | 20 | 308 | 14.5 | 24.1 | 0.00 | 0.00 | 0.00 | 37 | 1015.3 |
| 20260502180728 | 20 | 329 | 14.5 | 24.1 | 0.00 | 0.00 | 0.00 | 38 | 1015.3 |
| 20260502180620 | 20 | 315 | 12.9 | 24.1 | 0.00 | 0.00 | 0.00 | 41 | 1015.3 |
| 20260502180551 | 20 | 344 | 11.3 | 24.1 | 0.00 | 0.00 | 0.00 | 38 | 1015.3 |
| 20260502180324 | 20 | 5 | 12.9 | 24.1 | 0.00 | 0.00 | 0.00 | 38 | 1015.3 |
| 20260502180211 | 20 | 347 | 17.7 | 24.1 | 0.00 | 0.00 | 0.00 | 39 | 1015.4 |
| 20260502180118 | 20 | 331 | 17.7 | 24.1 | 0.00 | 0.00 | 0.00 | 39 | 1015.3 |
| 20260502170313 | 20 | 336 | 14.5 | 27.4 | 0.00 | 0.00 | 0.00 | 38 | 1015.8 |
| 20260502170220 | 20 | 5 | 14.5 | 25.7 | 0.00 | 0.00 | 0.00 | 36 | 1015.8 |
| 20260502170112 | 20 | 11 | 16.1 | 25.7 | 0.00 | 0.00 | 0.00 | 38 | 1015.8 |
| 20260502164318 | 18 | 12 | 8.0 | 24.1 | 0.00 | 0.00 | 0.00 | 43 | 1016.1 |
| 20260502164226 | 18 | 32 | 9.7 | 24.1 | 0.00 | 0.00 | 0.00 | 43 | 1016.1 |
| 20260502164112 | 18 | 340 | 11.3 | 24.1 | 0.00 | 0.00 | 0.00 | 42 | 1016.0 |
| 20260502164021 | 18 | 5 | 11.3 | 24.1 | 0.00 | 0.00 | 0.00 | 42 | 1016.0 |
| 20260502163913 | 18 | 339 | 8.0 | 25.7 | 0.00 | 0.00 | 0.00 | 42 | 1016.0 |
| 20260502163821 | 18 | 5 | 6.4 | 25.7 | 0.00 | 0.00 | 0.00 | 42 | 1016.0 |
| 20260502163749 | 18 | 13 | 11.3 | 25.7 | 0.00 | 0.00 | 0.00 | 41 | 1016.0 |
| 20260502163615 | 18 | 15 | 14.5 | 25.7 | 0.00 | 0.00 | 0.00 | 42 | 1016.1 |
| 20260502163549 | 18 | 22 | 14.5 | 25.7 | 0.00 | 0.00 | 0.00 | 42 | 1016.1 |
| 20260502163323 | 18 | 24 | 16.1 | 25.7 | 0.00 | 0.00 | 0.00 | 42 | 1016.2 |
| 20260502163210 | 18 | 5 | 16.1 | 25.7 | 0.00 | 0.00 | 0.00 | 41 | 1016.1 |
| 20260502163116 | 18 | 351 | 14.5 | 25.7 | 0.00 | 0.00 | 0.00 | 41 | 1016.2 |
| 20260502163043 | 18 | 41 | 14.5 | 25.7 | 0.00 | 0.00 | 0.00 | 41 | 1016.2 |
| 20260502162910 | 18 | 14 | 17.7 | 24.1 | 0.00 | 0.00 | 0.00 | 41 | 1016.1 |
| 20260502162838 | 18 | 321 | 14.5 | 24.1 | 0.00 | 0.00 | 0.00 | 41 | 1016.2 |
| 20260502162727 | 18 | 351 | 11.3 | 22.5 | 0.00 | 0.00 | 0.00 | 41 | 1016.2 |
| 20260502162615 | 18 | 307 | 8.0 | 22.5 | 0.00 | 0.00 | 0.00 | 41 | 1016.3 |
| 20260502162522 | 18 | 340 | 11.3 | 22.5 | 0.00 | 0.00 | 0.00 | 41 | 1016.3 |
| 20260502162409 | 18 | 5 | 14.5 | 22.5 | 0.00 | 0.00 | 0.00 | 42 | 1016.3 |
| 20260502162317 | 18 | 27 | 14.5 | 25.7 | 0.00 | 0.00 | 0.00 | 42 | 1016.2 |
| 20260502162244 | 18 | 5 | 11.3 | 25.7 | 0.00 | 0.00 | 0.00 | 43 | 1016.2 |
| 20260502162135 | 18 | 342 | 12.9 | 25.7 | 0.00 | 0.00 | 0.00 | 43 | 1016.3 |
| 20260502162044 | 18 | 5 | 14.5 | 25.7 | 0.00 | 0.00 | 0.00 | 41 | 1016.3 |
| 20260502161817 | 18 | 11 | 17.7 | 25.7 | 0.00 | 0.00 | 0.00 | 41 | 1016.3 |
| 20260502161725 | 18 | 14 | 17.7 | 25.7 | 0.00 | 0.00 | 0.00 | 41 | 1016.3 |
| 20260502161617 | 18 | 342 | 16.1 | 25.7 | 0.00 | 0.00 | 0.00 | 41 | 1016.3 |
| 20260502161525 | 18 | 323 | 16.1 | 25.7 | 0.00 | 0.00 | 0.00 | 42 | 1016.3 |
| 20260502161412 | 18 | 5 | 14.5 | 25.7 | 0.00 | 0.00 | 0.00 | 42 | 1016.3 |
| 20260502161320 | 18 | 13 | 14.5 | 25.7 | 0.00 | 0.00 | 0.00 | 43 | 1016.3 |
| 20260502161228 | 18 | 5 | 14.5 | 25.7 | 0.00 | 0.00 | 0.00 | 43 | 1016.3 |
| 20260502161117 | 18 | 5 | 14.5 | 29.0 | 0.00 | 0.00 | 0.00 | 42 | 1016.4 |
| 20260502161008 | 18 | 351 | 14.5 | 29.0 | 0.00 | 0.00 | 0.00 | 42 | 1016.3 |
| 20260502160915 | 18 | 5 | 14.5 | 29.0 | 0.00 | 0.00 | 0.00 | 43 | 1016.4 |
| 20260502160823 | 18 | 9 | 14.5 | 29.0 | 0.00 | 0.00 | 0.00 | 43 | 1016.4 |
| 20260502160749 | 18 | 334 | 16.1 | 29.0 | 0.00 | 0.00 | 0.00 | 43 | 1016.3 |
| 20260502160614 | 18 | 32 | 17.7 | 29.0 | 0.00 | 0.00 | 0.00 | 41 | 1016.4 |
| 20260502160550 | 18 | 348 | 19.3 | 29.0 | 0.00 | 0.00 | 0.00 | 41 | 1016.4 |
| 20260502160323 | 18 | 348 | 19.3 | 29.0 | 0.00 | 0.00 | 0.00 | 43 | 1016.3 |
| 20260502160211 | 18 | 13 | 17.7 | 24.1 | 0.00 | 0.00 | 0.00 | 43 | 1016.4 |
| 20260502160119 | 18 | 19 | 16.1 | 24.1 | 0.00 | 0.00 | 0.00 | 43 | 1016.4 |
| 20260502152219 | 16 | 34 | 11.3 | 20.9 | 0.00 | 0.00 | 0.00 | 49 | 1016.2 |
| 20260502152126 | 16 | 30 | 12.9 | 20.9 | 0.00 | 0.00 | 0.00 | 49 | 1016.2 |
| 20260502152101 | 16 | 15 | 14.5 | 20.9 | 0.00 | 0.00 | 0.00 | 48 | 1016.2 |
| 20260502151815 | 16 | 30 | 14.5 | 20.9 | 0.00 | 0.00 | 0.00 | 49 | 1016.2 |
| 20260502151742 | 16 | 44 | 12.9 | 20.9 | 0.00 | 0.00 | 0.00 | 49 | 1016.2 |
| 20260502151628 | 16 | 42 | 11.3 | 20.9 | 0.00 | 0.00 | 0.00 | 50 | 1016.1 |
| 20260502151516 | 16 | 38 | 11.3 | 20.9 | 0.00 | 0.00 | 0.00 | 50 | 1016.1 |
| 20260502151427 | 16 | 12 | 11.3 | 20.9 | 0.00 | 0.00 | 0.00 | 50 | 1016.1 |
| 20260502151314 | 16 | 18 | 12.9 | 20.9 | 0.00 | 0.00 | 0.00 | 50 | 1016.1 |
| 20260502151221 | 15 | 24 | 14.5 | 20.9 | 0.00 | 0.00 | 0.00 | 50 | 1016.1 |
| 20260502151110 | 15 | 40 | 16.1 | 20.9 | 0.00 | 0.00 | 0.00 | 50 | 1016.2 |
| 20260502151017 | 15 | 15 | 14.5 | 20.9 | 0.00 | 0.00 | 0.00 | 50 | 1016.0 |
| 20260502150910 | 15 | 12 | 14.5 | 24.1 | 0.00 | 0.00 | 0.00 | 51 | 1016.1 |
| 20260502150819 | 15 | 36 | 12.9 | 24.1 | 0.00 | 0.00 | 0.00 | 50 | 1016.1 |
| 20260502150726 | 15 | 38 | 12.9 | 24.1 | 0.00 | 0.00 | 0.00 | 49 | 1016.1 |
| 20260502150613 | 15 | 30 | 11.3 | 24.1 | 0.00 | 0.00 | 0.00 | 49 | 1016.1 |
| 20260502150544 | 15 | 17 | 11.3 | 24.1 | 0.00 | 0.00 | 0.00 | 50 | 1016.1 |
| 20260502150322 | 15 | 11 | 12.9 | 25.7 | 0.00 | 0.00 | 0.00 | 49 | 1016.0 |
| 20260502150210 | 15 | 360 | 16.1 | 25.7 | 0.00 | 0.00 | 0.00 | 49 | 1016.0 |
| 20260502150116 | 15 | 49 | 16.1 | 25.7 | 0.00 | 0.00 | 0.00 | 49 | 1016.0 |
| 20260502130721 | 12 | 16 | 9.7 | 19.3 | 0.00 | 0.00 | 0.00 | 64 | 1015.4 |
| 20260502130630 | 12 | 360 | 6.4 | 16.1 | 0.00 | 0.00 | 0.00 | 64 | 1015.4 |
| 20260502130559 | 12 | 29 | 6.4 | 16.1 | 0.00 | 0.00 | 0.00 | 64 | 1015.4 |
| 20260502130313 | 12 | 54 | 9.7 | 16.1 | 0.00 | 0.00 | 0.00 | 64 | 1015.3 |
| 20260502130224 | 12 | 348 | 11.3 | 16.1 | 0.00 | 0.00 | 0.00 | 65 | 1015.3 |
| 20260502130132 | 12 | 346 | 9.7 | 16.1 | 0.00 | 0.00 | 0.00 | 65 | 1015.3 |
| 20260502123727 | 11 | 23 | 6.4 | 16.1 | 0.00 | 0.00 | 0.00 | 68 | 1015.5 |
| 20260502123614 | 11 | 29 | 4.8 | 16.1 | 0.00 | 0.00 | 0.00 | 68 | 1015.4 |
| 20260502123550 | 11 | 5 | 4.8 | 16.1 | 0.00 | 0.00 | 0.00 | 68 | 1015.4 |
| 20260502123323 | 11 | 360 | 8.0 | 16.1 | 0.00 | 0.00 | 0.00 | 68 | 1015.4 |
| 20260502123230 | 11 | 5 | 9.7 | 16.1 | 0.00 | 0.00 | 0.00 | 68 | 1015.3 |
| 20260502123117 | 11 | 343 | 9.7 | 16.1 | 0.00 | 0.00 | 0.00 | 68 | 1015.3 |
| 20260502123043 | 11 | 355 | 9.7 | 16.1 | 0.00 | 0.00 | 0.00 | 69 | 1015.3 |
| 20260502122949 | 11 | 5 | 11.3 | 16.1 | 0.00 | 0.00 | 0.00 | 69 | 1015.3 |
| 20260502122835 | 11 | 336 | 9.7 | 16.1 | 0.00 | 0.00 | 0.00 | 69 | 1015.3 |
| 20260502122721 | 11 | 10 | 8.0 | 16.1 | 0.00 | 0.00 | 0.00 | 69 | 1015.3 |
| 20260502122632 | 11 | 28 | 8.0 | 16.1 | 0.00 | 0.00 | 0.00 | 69 | 1015.2 |
| 20260502122518 | 11 | 360 | 8.0 | 16.1 | 0.00 | 0.00 | 0.00 | 70 | 1015.2 |
| 20260502122426 | 11 | 13 | 11.3 | 16.1 | 0.00 | 0.00 | 0.00 | 70 | 1015.2 |
| 20260502122312 | 10 | 355 | 9.7 | 16.1 | 0.00 | 0.00 | 0.00 | 70 | 1015.2 |
| 20260502122240 | 10 | 355 | 9.7 | 16.1 | 0.00 | 0.00 | 0.00 | 71 | 1015.2 |
| 20260502122208 | 10 | 5 | 8.0 | 14.5 | 0.00 | 0.00 | 0.00 | 71 | 1015.3 |
| 20260502122121 | 10 | 40 | 8.0 | 14.5 | 0.00 | 0.00 | 0.00 | 71 | 1015.3 |
| 20260502121814 | 10 | 30 | 6.4 | 12.9 | 0.00 | 0.00 | 0.00 | 72 | 1015.3 |
| 20260502121721 | 10 | 360 | 6.4 | 12.9 | 0.00 | 0.00 | 0.00 | 72 | 1015.3 |
| 20260502121608 | 10 | 13 | 6.4 | 12.9 | 0.00 | 0.00 | 0.00 | 72 | 1015.3 |
| 20260502121516 | 10 | 5 | 4.8 | 12.9 | 0.00 | 0.00 | 0.00 | 72 | 1015.3 |
| 20260502121427 | 10 | 330 | 4.8 | 12.9 | 0.00 | 0.00 | 0.00 | 72 | 1015.3 |
| 20260502121315 | 10 | 360 | 6.4 | 12.9 | 0.00 | 0.00 | 0.00 | 72 | 1015.2 |
| 20260502121223 | 10 | 355 | 8.0 | 12.9 | 0.00 | 0.00 | 0.00 | 72 | 1015.2 |
| 20260502121131 | 10 | 355 | 6.4 | 12.9 | 0.00 | 0.00 | 0.00 | 71 | 1015.1 |
| 20260502121018 | 10 | 340 | 6.4 | 12.9 | 0.00 | 0.00 | 0.00 | 71 | 1015.1 |
| 20260502120909 | 10 | 22 | 4.8 | 12.9 | 0.00 | 0.00 | 0.00 | 71 | 1015.0 |
| 20260502120816 | 10 | 342 | 6.4 | 12.9 | 0.00 | 0.00 | 0.00 | 71 | 1015.0 |
| 20260502120743 | 10 | 5 | 6.4 | 12.9 | 0.00 | 0.00 | 0.00 | 71 | 1015.0 |
| 20260502120631 | 10 | 11 | 6.4 | 12.9 | 0.00 | 0.00 | 0.00 | 71 | 1014.9 |
| 20260502120602 | 10 | 329 | 4.8 | 8.0 | 0.00 | 0.00 | 0.00 | 71 | 1015.0 |
| 20260502120335 | 10 | 348 | 4.8 | 8.0 | 0.00 | 0.00 | 0.00 | 71 | 1014.8 |
| 20260502120226 | 10 | 360 | 4.8 | 8.0 | 0.00 | 0.00 | 0.00 | 71 | 1014.8 |
| 20260502120113 | 10 | 9 | 4.8 | 8.0 | 0.00 | 0.00 | 0.00 | 71 | 1014.8 |
| 20260502115815 | 10 | 355 | 4.8 | 8.0 | 0.00 | 0.00 | 0.00 | 71 | 1014.8 |
| 20260502115722 | 10 | 19 | 4.8 | 8.0 | 0.00 | 0.00 | 0.00 | 70 | 1014.8 |
| 20260502115635 | 10 | 348 | 4.8 | 8.0 | 0.00 | 0.00 | 0.00 | 70 | 1014.8 |
| 20260502115522 | 10 | 15 | 4.8 | 8.0 | 0.00 | 0.00 | 0.00 | 70 | 1014.8 |
| 20260502115408 | 10 | 360 | 4.8 | 8.0 | 0.00 | 0.00 | 0.00 | 70 | 1014.7 |
| 20260502115316 | 10 | 17 | 4.8 | 9.7 | 0.00 | 0.00 | 0.00 | 70 | 1014.8 |
| 20260502115245 | 10 | 9 | 4.8 | 9.7 | 0.00 | 0.00 | 0.00 | 70 | 1014.8 |
| 20260502115131 | 10 | 5 | 4.8 | 9.7 | 0.00 | 0.00 | 0.00 | 70 | 1014.8 |
| 20260502115105 | 10 | 24 | 4.8 | 9.7 | 0.00 | 0.00 | 0.00 | 70 | 1014.8 |
| 20260502114817 | 10 | 360 | 4.8 | 9.7 | 0.00 | 0.00 | 0.00 | 70 | 1014.8 |
| 20260502114744 | 10 | 18 | 4.8 | 9.7 | 0.00 | 0.00 | 0.00 | 70 | 1014.8 |
| 20260502114519 | 10 | 360 | 8.0 | 12.9 | 0.00 | 0.00 | 0.00 | 70 | 1014.8 |
| 20260502114410 | 10 | 15 | 6.4 | 12.9 | 0.00 | 0.00 | 0.00 | 70 | 1014.8 |
| 20260502114228 | 10 | 17 | 6.4 | 12.9 | 0.00 | 0.00 | 0.00 | 70 | 1014.8 |
| 20260502114135 | 10 | 355 | 4.8 | 12.9 | 0.00 | 0.00 | 0.00 | 70 | 1014.7 |
| 20260502114021 | 10 | 346 | 4.8 | 12.9 | 0.00 | 0.00 | 0.00 | 69 | 1014.7 |
| 20260502113930 | 10 | 338 | 6.4 | 12.9 | 0.00 | 0.00 | 0.00 | 69 | 1014.7 |
| 20260502113821 | 10 | 28 | 6.4 | 12.9 | 0.00 | 0.00 | 0.00 | 69 | 1014.7 |
| 20260502113708 | 10 | 11 | 8.0 | 12.9 | 0.00 | 0.00 | 0.00 | 69 | 1014.8 |
| 20260502113617 | 10 | 5 | 6.4 | 9.7 | 0.00 | 0.00 | 0.00 | 69 | 1014.7 |
| 20260502113548 | 10 | 355 | 6.4 | 9.7 | 0.00 | 0.00 | 0.00 | 69 | 1014.7 |
| 20260502113340 | 10 | 19 | 6.4 | 9.7 | 0.00 | 0.00 | 0.00 | 69 | 1014.6 |
| 20260502113210 | 10 | 333 | 4.8 | 8.0 | 0.00 | 0.00 | 0.00 | 69 | 1014.6 |
| 20260502113118 | 10 | 13 | 4.8 | 8.0 | 0.00 | 0.00 | 0.00 | 69 | 1014.6 |
| 20260502113026 | 10 | 30 | 4.8 | 8.0 | 0.00 | 0.00 | 0.00 | 69 | 1014.6 |
| 20260502112913 | 10 | 12 | 4.8 | 8.0 | 0.00 | 0.00 | 0.00 | 69 | 1014.5 |
| 20260502112840 | 10 | 15 | 4.8 | 8.0 | 0.00 | 0.00 | 0.00 | 69 | 1014.5 |
| 20260502112727 | 10 | 14 | 4.8 | 8.0 | 0.00 | 0.00 | 0.00 | 69 | 1014.6 |
| 20260502112617 | 10 | 5 | 6.4 | 8.0 | 0.00 | 0.00 | 0.00 | 69 | 1014.6 |
| 20260502112525 | 10 | 28 | 4.8 | 6.4 | 0.00 | 0.00 | 0.00 | 69 | 1014.6 |
| 20260502112412 | 10 | 325 | 3.2 | 6.4 | 0.00 | 0.00 | 0.00 | 69 | 1014.6 |
| 20260502112320 | 10 | 331 | 3.2 | 8.0 | 0.00 | 0.00 | 0.00 | 69 | 1014.6 |
| 20260502112227 | 10 | 349 | 3.2 | 8.0 | 0.00 | 0.00 | 0.00 | 69 | 1014.6 |
| 20260502112136 | 10 | 351 | 4.8 | 8.0 | 0.00 | 0.00 | 0.00 | 69 | 1014.6 |
| 20260502112110 | 10 | 355 | 4.8 | 8.0 | 0.00 | 0.00 | 0.00 | 69 | 1014.7 |
| 20260502111823 | 10 | 360 | 4.8 | 8.0 | 0.00 | 0.00 | 0.00 | 68 | 1014.6 |
| 20260502111731 | 10 | 339 | 4.8 | 8.0 | 0.00 | 0.00 | 0.00 | 68 | 1014.5 |
| 20260502111638 | 10 | 5 | 4.8 | 8.0 | 0.00 | 0.00 | 0.00 | 68 | 1014.5 |
| 20260502111524 | 10 | 22 | 4.8 | 8.0 | 0.00 | 0.00 | 0.00 | 68 | 1014.5 |
| 20260502111417 | 10 | 5 | 4.8 | 6.4 | 0.00 | 0.00 | 0.00 | 68 | 1014.4 |
| 20260502111325 | 10 | 17 | 4.8 | 6.4 | 0.00 | 0.00 | 0.00 | 68 | 1014.4 |
| 20260502111212 | 10 | 28 | 4.8 | 6.4 | 0.00 | 0.00 | 0.00 | 68 | 1014.4 |
| 20260502111120 | 10 | 346 | 4.8 | 6.4 | 0.00 | 0.00 | 0.00 | 68 | 1014.4 |
| 20260502111008 | 10 | 13 | 3.2 | 6.4 | 0.00 | 0.00 | 0.00 | 68 | 1014.4 |
| 20260502110919 | 10 | 343 | 3.2 | 6.4 | 0.00 | 0.00 | 0.00 | 68 | 1014.4 |
| 20260502110827 | 10 | 42 | 4.8 | 6.4 | 0.00 | 0.00 | 0.00 | 68 | 1014.4 |
| 20260502110713 | 10 | 5 | 4.8 | 9.7 | 0.00 | 0.00 | 0.00 | 68 | 1014.4 |
| 20260502110621 | 10 | 30 | 4.8 | 9.7 | 0.00 | 0.00 | 0.00 | 68 | 1014.4 |
| 20260502110552 | 10 | 17 | 4.8 | 9.7 | 0.00 | 0.00 | 0.00 | 68 | 1014.3 |
| 20260502110329 | 10 | 5 | 4.8 | 9.7 | 0.00 | 0.00 | 0.00 | 68 | 1014.4 |
| 20260502110233 | 10 | 5 | 4.8 | 9.7 | 0.00 | 0.00 | 0.00 | 68 | 1014.2 |
| 20260502110119 | 10 | 360 | 4.8 | 9.7 | 0.00 | 0.00 | 0.00 | 68 | 1014.2 |
| 20260502110026 | 10 | 337 | 4.8 | 9.7 | 0.00 | 0.00 | 0.00 | 67 | 1014.2 |
| 20260502105914 | 10 | 11 | 4.8 | 9.7 | 0.00 | 0.00 | 0.00 | 67 | 1014.3 |
| 20260502105821 | 10 | 34 | 4.8 | 8.0 | 0.00 | 0.00 | 0.00 | 67 | 1014.3 |
| 20260502105713 | 10 | 349 | 4.8 | 9.7 | 0.00 | 0.00 | 0.00 | 67 | 1014.3 |
| 20260502105621 | 10 | 11 | 4.8 | 9.7 | 0.00 | 0.00 | 0.00 | 67 | 1014.3 |
| 20260502105527 | 10 | 20 | 4.8 | 9.7 | 0.00 | 0.00 | 0.00 | 67 | 1014.2 |
| 20260502105413 | 10 | 5 | 4.8 | 9.7 | 0.00 | 0.00 | 0.00 | 67 | 1014.2 |
| 20260502105321 | 10 | 348 | 3.2 | 9.7 | 0.00 | 0.00 | 0.00 | 67 | 1014.2 |
| 20260502105213 | 10 | 355 | 4.8 | 9.7 | 0.00 | 0.00 | 0.00 | 67 | 1014.0 |
| 20260502105140 | 10 | 334 | 4.8 | 9.7 | 0.00 | 0.00 | 0.00 | 67 | 1014.0 |
| 20260502105111 | 10 | 343 | 6.4 | 9.7 | 0.00 | 0.00 | 0.00 | 67 | 1014.0 |
| 20260502104823 | 10 | 9 | 6.4 | 11.3 | 0.00 | 0.00 | 0.00 | 67 | 1014.0 |
| 20260502104712 | 10 | 323 | 4.8 | 9.7 | 0.00 | 0.00 | 0.00 | 67 | 1014.0 |
| 20260502104624 | 10 | 355 | 3.2 | 9.7 | 0.00 | 0.00 | 0.00 | 67 | 1014.0 |
| 20260502104512 | 10 | 335 | 4.8 | 9.7 | 0.00 | 0.00 | 0.00 | 67 | 1014.0 |
| 20260502104419 | 10 | 355 | 6.4 | 9.7 | 0.00 | 0.00 | 0.00 | 67 | 1014.0 |
| 20260502104325 | 10 | 360 | 6.4 | 9.7 | 0.00 | 0.00 | 0.00 | 67 | 1014.0 |
| 20260502104213 | 10 | 313 | 6.4 | 9.7 | 0.00 | 0.00 | 0.00 | 66 | 1013.9 |
| 20260502104120 | 10 | 355 | 4.8 | 8.0 | 0.00 | 0.00 | 0.00 | 67 | 1013.9 |
| 20260502104011 | 10 | 350 | 4.8 | 8.0 | 0.00 | 0.00 | 0.00 | 66 | 1013.9 |
| 20260502103919 | 10 | 336 | 4.8 | 8.0 | 0.00 | 0.00 | 0.00 | 66 | 1013.9 |
| 20260502103827 | 10 | 355 | 4.8 | 8.0 | 0.00 | 0.00 | 0.00 | 66 | 1013.9 |
| 20260502103736 | 10 | 355 | 4.8 | 8.0 | 0.00 | 0.00 | 0.00 | 66 | 1013.9 |
| 20260502103622 | 10 | 344 | 4.8 | 8.0 | 0.00 | 0.00 | 0.00 | 66 | 1013.9 |
| 20260502103557 | 10 | 346 | 4.8 | 6.4 | 0.00 | 0.00 | 0.00 | 66 | 1013.8 |
| 20260502103310 | 10 | 5 | 4.8 | 6.4 | 0.00 | 0.00 | 0.00 | 65 | 1013.8 |
| 20260502103217 | 10 | 348 | 4.8 | 6.4 | 0.00 | 0.00 | 0.00 | 65 | 1013.8 |
| 20260502103125 | 10 | 340 | 3.2 | 6.4 | 0.00 | 0.00 | 0.00 | 65 | 1013.8 |
| 20260502103013 | 10 | 5 | 3.2 | 6.4 | 0.00 | 0.00 | 0.00 | 65 | 1014.0 |
| 20260502102924 | 10 | 19 | 3.2 | 6.4 | 0.00 | 0.00 | 0.00 | 65 | 1014.0 |
| 20260502102811 | 10 | 355 | 3.2 | 6.4 | 0.00 | 0.00 | 0.00 | 65 | 1013.9 |
| 20260502102718 | 10 | 5 | 3.2 | 6.4 | 0.00 | 0.00 | 0.00 | 65 | 1013.9 |
| 20260502102626 | 10 | 360 | 3.2 | 6.4 | 0.00 | 0.00 | 0.00 | 65 | 1013.9 |
| 20260502102512 | 10 | 355 | 3.2 | 6.4 | 0.00 | 0.00 | 0.00 | 65 | 1013.9 |
| 20260502102439 | 11 | 5 | 1.6 | 6.4 | 0.00 | 0.00 | 0.00 | 65 | 1013.9 |
| 20260502102330 | 11 | 9 | 3.2 | 8.0 | 0.00 | 0.00 | 0.00 | 64 | 1013.9 |
| 20260502102237 | 11 | 5 | 3.2 | 8.0 | 0.00 | 0.00 | 0.00 | 65 | 1013.8 |
| 20260502102123 | 11 | 5 | 3.2 | 8.0 | 0.00 | 0.00 | 0.00 | 64 | 1013.8 |
| 20260502102053 | 11 | 9 | 3.2 | 8.0 | 0.00 | 0.00 | 0.00 | 64 | 1013.9 |
| 20260502101719 | 11 | 336 | 4.8 | 9.7 | 0.00 | 0.00 | 0.00 | 64 | 1013.9 |
| 20260502101627 | 11 | 9 | 4.8 | 9.7 | 0.00 | 0.00 | 0.00 | 64 | 1013.8 |
| 20260502101515 | 11 | 355 | 4.8 | 9.7 | 0.00 | 0.00 | 0.00 | 64 | 1013.9 |
| 20260502101423 | 11 | 355 | 4.8 | 12.9 | 0.00 | 0.00 | 0.00 | 64 | 1013.9 |
| 20260502101309 | 11 | 327 | 3.2 | 12.9 | 0.00 | 0.00 | 0.00 | 64 | 1014.0 |
| 20260502101220 | 11 | 347 | 4.8 | 12.9 | 0.00 | 0.00 | 0.00 | 64 | 1014.0 |
| 20260502101129 | 11 | 13 | 6.4 | 12.9 | 0.00 | 0.00 | 0.00 | 64 | 1013.8 |
| 20260502101016 | 11 | 355 | 6.4 | 12.9 | 0.00 | 0.00 | 0.00 | 64 | 1013.9 |
| 20260502100924 | 11 | 355 | 6.4 | 12.9 | 0.00 | 0.00 | 0.00 | 64 | 1013.9 |
| 20260502100812 | 11 | 9 | 4.8 | 16.1 | 0.00 | 0.00 | 0.00 | 63 | 1013.7 |
| 20260502100719 | 11 | 344 | 6.4 | 16.1 | 0.00 | 0.00 | 0.00 | 63 | 1013.7 |
| 20260502100631 | 11 | 355 | 6.4 | 16.1 | 0.00 | 0.00 | 0.00 | 63 | 1013.7 |
| 20260502100602 | 11 | 22 | 8.0 | 16.1 | 0.00 | 0.00 | 0.00 | 63 | 1013.8 |
| 20260502100337 | 11 | 360 | 8.0 | 16.1 | 0.00 | 0.00 | 0.00 | 63 | 1013.7 |
| 20260502100223 | 11 | 5 | 8.0 | 16.1 | 0.00 | 0.00 | 0.00 | 63 | 1013.7 |
| 20260502100110 | 11 | 5 | 9.7 | 16.1 | 0.00 | 0.00 | 0.00 | 63 | 1013.6 |
| 20260502091534 | 11 | 5 | 8.0 | 16.1 | 0.00 | 0.00 | 0.00 | 60 | 1013.7 |
| 20260502091420 | 11 | 360 | 9.7 | 16.1 | 0.00 | 0.00 | 0.00 | 60 | 1013.7 |
| 20260502091325 | 11 | 360 | 9.7 | 16.1 | 0.00 | 0.00 | 0.00 | 60 | 1013.6 |
| 20260502091212 | 11 | 14 | 9.7 | 16.1 | 0.00 | 0.00 | 0.00 | 60 | 1013.7 |
| 20260502091121 | 11 | 331 | 8.0 | 16.1 | 0.00 | 0.00 | 0.00 | 60 | 1013.7 |
| 20260502091028 | 11 | 5 | 8.0 | 16.1 | 0.00 | 0.00 | 0.00 | 60 | 1013.6 |
| 20260502090919 | 11 | 360 | 8.0 | 16.1 | 0.00 | 0.00 | 0.00 | 60 | 1013.6 |
| 20260502090827 | 11 | 5 | 9.7 | 16.1 | 0.00 | 0.00 | 0.00 | 60 | 1013.6 |
| 20260502090713 | 11 | 5 | 11.3 | 16.1 | 0.00 | 0.00 | 0.00 | 60 | 1013.6 |
| 20260502090641 | 11 | 5 | 11.3 | 16.1 | 0.00 | 0.00 | 0.00 | 59 | 1013.6 |
| 20260502090552 | 11 | 15 | 11.3 | 16.1 | 0.00 | 0.00 | 0.00 | 60 | 1013.6 |
| 20260502090310 | 11 | 17 | 6.4 | 14.5 | 0.00 | 0.00 | 0.00 | 59 | 1013.6 |
| 20260502090237 | 11 | 5 | 8.0 | 14.5 | 0.00 | 0.00 | 0.00 | 59 | 1013.6 |
| 20260502090124 | 11 | 17 | 9.7 | 14.5 | 0.00 | 0.00 | 0.00 | 59 | 1013.6 |
| 20260502071529 | 12 | 30 | 11.3 | 20.9 | 0.00 | 0.00 | 0.00 | 56 | 1014.2 |
| 20260502071415 | 12 | 11 | 9.7 | 20.9 | 0.00 | 0.00 | 0.00 | 57 | 1014.1 |
| 20260502071343 | 12 | 347 | 9.7 | 20.9 | 0.00 | 0.00 | 0.00 | 57 | 1014.1 |
| 20260502071208 | 12 | 5 | 12.9 | 20.9 | 0.00 | 0.00 | 0.00 | 56 | 1014.0 |
| 20260502071120 | 12 | 13 | 12.9 | 20.9 | 0.00 | 0.00 | 0.00 | 56 | 1014.0 |
| 20260502071028 | 12 | 34 | 14.5 | 20.9 | 0.00 | 0.00 | 0.00 | 56 | 1014.1 |
| 20260502070915 | 12 | 21 | 12.9 | 20.9 | 0.00 | 0.00 | 0.00 | 56 | 1014.1 |
| 20260502070820 | 12 | 360 | 11.3 | 20.9 | 0.00 | 0.00 | 0.00 | 56 | 1014.1 |
| 20260502070749 | 12 | 26 | 11.3 | 22.5 | 0.00 | 0.00 | 0.00 | 56 | 1014.0 |
| 20260502070614 | 12 | 43 | 12.9 | 22.5 | 0.00 | 0.00 | 0.00 | 56 | 1014.3 |
| 20260502070548 | 12 | 25 | 12.9 | 22.5 | 0.00 | 0.00 | 0.00 | 56 | 1014.3 |
| 20260502070321 | 12 | 36 | 14.5 | 22.5 | 0.00 | 0.00 | 0.00 | 56 | 1014.5 |
| 20260502070208 | 12 | 349 | 12.9 | 22.5 | 0.00 | 0.00 | 0.00 | 56 | 1014.7 |
| 20260502070116 | 12 | 19 | 12.9 | 22.5 | 0.00 | 0.00 | 0.00 | 56 | 1014.8 |
| 20260502070008 | 12 | 38 | 14.5 | 22.5 | 0.00 | 0.00 | 0.00 | 56 | 1014.7 |
| 20260502065917 | 12 | 27 | 14.5 | 22.5 | 0.00 | 0.00 | 0.00 | 56 | 1014.8 |
| 20260502065845 | 12 | 350 | 12.9 | 22.5 | 0.00 | 0.00 | 0.00 | 57 | 1014.8 |
| 20260502065731 | 12 | 11 | 9.7 | 22.5 | 0.00 | 0.00 | 0.00 | 56 | 1014.8 |
| 20260502065619 | 12 | 338 | 9.7 | 22.5 | 0.00 | 0.00 | 0.00 | 56 | 1014.8 |
| 20260502065527 | 12 | 13 | 12.9 | 22.5 | 0.00 | 0.00 | 0.00 | 56 | 1014.7 |
| 20260502065415 | 12 | 28 | 11.3 | 22.5 | 0.00 | 0.00 | 0.00 | 57 | 1014.5 |
| 20260502065347 | 12 | 22 | 8.0 | 22.5 | 0.00 | 0.00 | 0.00 | 56 | 1014.5 |
| 20260502065233 | 12 | 9 | 11.3 | 20.9 | 0.00 | 0.00 | 0.00 | 56 | 1014.5 |
| 20260502065120 | 12 | 334 | 12.9 | 20.9 | 0.00 | 0.00 | 0.00 | 56 | 1014.5 |
| 20260502065050 | 12 | 9 | 14.5 | 20.9 | 0.00 | 0.00 | 0.00 | 56 | 1014.4 |
| 20260502064825 | 12 | 34 | 12.9 | 20.9 | 0.00 | 0.00 | 0.00 | 56 | 1014.5 |
| 20260502064717 | 12 | 30 | 14.5 | 20.9 | 0.00 | 0.00 | 0.00 | 56 | 1014.5 |
| 20260502064623 | 12 | 360 | 12.9 | 20.9 | 0.00 | 0.00 | 0.00 | 56 | 1014.5 |
| 20260502064509 | 12 | 11 | 12.9 | 20.9 | 0.00 | 0.00 | 0.00 | 56 | 1014.5 |
| 20260502064417 | 12 | 20 | 12.9 | 20.9 | 0.00 | 0.00 | 0.00 | 56 | 1014.6 |
| 20260502064325 | 12 | 5 | 12.9 | 20.9 | 0.00 | 0.00 | 0.00 | 56 | 1014.6 |
| 20260502064233 | 12 | 32 | 14.5 | 20.9 | 0.00 | 0.00 | 0.00 | 55 | 1014.6 |
| 20260502064123 | 12 | 12 | 12.9 | 20.9 | 0.00 | 0.00 | 0.00 | 56 | 1014.6 |
| 20260502064008 | 12 | 38 | 11.3 | 20.9 | 0.00 | 0.00 | 0.00 | 56 | 1014.7 |
| 20260502063917 | 12 | 15 | 9.7 | 19.3 | 0.00 | 0.00 | 0.00 | 56 | 1014.6 |
| 20260502063823 | 12 | 18 | 9.7 | 19.3 | 0.00 | 0.00 | 0.00 | 56 | 1014.6 |
| 20260502063711 | 12 | 38 | 11.3 | 20.9 | 0.00 | 0.00 | 0.00 | 56 | 1014.7 |
| 20260502063619 | 12 | 355 | 11.3 | 20.9 | 0.00 | 0.00 | 0.00 | 56 | 1014.7 |
| 20260502063554 | 12 | 19 | 12.9 | 20.9 | 0.00 | 0.00 | 0.00 | 55 | 1014.6 |
| 20260502063347 | 12 | 27 | 14.5 | 20.9 | 0.00 | 0.00 | 0.00 | 56 | 1014.7 |
| 20260502063214 | 12 | 14 | 12.9 | 20.9 | 0.00 | 0.00 | 0.00 | 55 | 1014.6 |
| 20260502063123 | 12 | 360 | 11.3 | 20.9 | 0.00 | 0.00 | 0.00 | 55 | 1014.6 |
| 20260502063014 | 12 | 5 | 12.9 | 20.9 | 0.00 | 0.00 | 0.00 | 55 | 1014.5 |
| 20260502062920 | 12 | 25 | 14.5 | 20.9 | 0.00 | 0.00 | 0.00 | 55 | 1014.5 |
| 20260502062826 | 12 | 31 | 12.9 | 20.9 | 0.00 | 0.00 | 0.00 | 55 | 1014.6 |
| 20260502062734 | 12 | 340 | 12.9 | 20.9 | 0.00 | 0.00 | 0.00 | 55 | 1014.6 |
| 20260502062640 | 13 | 5 | 12.9 | 22.5 | 0.00 | 0.00 | 0.00 | 56 | 1014.6 |
| 20260502062528 | 13 | 12 | 12.9 | 22.5 | 0.00 | 0.00 | 0.00 | 55 | 1014.7 |
| 20260502062415 | 12 | 5 | 11.3 | 22.5 | 0.00 | 0.00 | 0.00 | 55 | 1014.6 |
| 20260502062328 | 13 | 360 | 12.9 | 22.5 | 0.00 | 0.00 | 0.00 | 55 | 1014.6 |
| 20260502062215 | 13 | 24 | 14.5 | 22.5 | 0.00 | 0.00 | 0.00 | 55 | 1014.6 |
| 20260502062142 | 13 | 38 | 16.1 | 22.5 | 0.00 | 0.00 | 0.00 | 55 | 1014.6 |
| 20260502062052 | 13 | 32 | 16.1 | 22.5 | 0.00 | 0.00 | 0.00 | 55 | 1014.6 |
| 20260502061826 | 13 | 26 | 14.5 | 22.5 | 0.00 | 0.00 | 0.00 | 55 | 1014.8 |
| 20260502061717 | 13 | 346 | 11.3 | 20.9 | 0.00 | 0.00 | 0.00 | 55 | 1014.9 |
| 20260502061418 | 13 | 17 | 14.5 | 20.9 | 0.00 | 0.00 | 0.00 | 55 | 1015.0 |
| 20260502061345 | 13 | 360 | 14.5 | 20.9 | 0.00 | 0.00 | 0.00 | 54 | 1015.0 |
| 20260502061212 | 13 | 355 | 11.3 | 20.9 | 0.00 | 0.00 | 0.00 | 54 | 1015.0 |
| 20260502061140 | 13 | 38 | 9.7 | 20.9 | 0.00 | 0.00 | 0.00 | 55 | 1015.0 |
| 20260502061009 | 13 | 32 | 9.7 | 22.5 | 0.00 | 0.00 | 0.00 | 54 | 1015.0 |
| 20260502060916 | 13 | 13 | 11.3 | 22.5 | 0.00 | 0.00 | 0.00 | 54 | 1015.0 |
| 20260502060823 | 13 | 9 | 11.3 | 22.5 | 0.00 | 0.00 | 0.00 | 54 | 1015.0 |
| 20260502060712 | 13 | 355 | 12.9 | 22.5 | 0.00 | 0.00 | 0.00 | 54 | 1014.9 |
| 20260502060619 | 13 | 11 | 14.5 | 22.5 | 0.00 | 0.00 | 0.00 | 54 | 1014.9 |
| 20260502060553 | 13 | 355 | 16.1 | 22.5 | 0.00 | 0.00 | 0.00 | 54 | 1015.0 |
| 20260502060347 | 13 | 44 | 16.1 | 22.5 | 0.00 | 0.00 | 0.00 | 54 | 1014.8 |
| 20260502060213 | 13 | 19 | 12.9 | 22.5 | 0.00 | 0.00 | 0.00 | 54 | 1014.9 |
| 20260502060120 | 13 | 360 | 9.7 | 19.3 | 0.00 | 0.00 | 0.00 | 54 | 1014.9 |
| 20260502060048 | 13 | 29 | 11.3 | 19.3 | 0.00 | 0.00 | 0.00 | 54 | 1014.9 |
| 20260502055919 | 13 | 360 | 12.9 | 19.3 | 0.00 | 0.00 | 0.00 | 53 | 1014.8 |
| 20260502055826 | 13 | 16 | 11.3 | 19.3 | 0.00 | 0.00 | 0.00 | 54 | 1014.8 |
| 20260502055714 | 13 | 344 | 11.3 | 19.3 | 0.00 | 0.00 | 0.00 | 54 | 1014.8 |
| 20260502055623 | 13 | 15 | 11.3 | 19.3 | 0.00 | 0.00 | 0.00 | 54 | 1014.8 |
| 20260502055511 | 13 | 5 | 9.7 | 24.1 | 0.00 | 0.00 | 0.00 | 54 | 1014.7 |
| 20260502055418 | 13 | 360 | 9.7 | 24.1 | 0.00 | 0.00 | 0.00 | 54 | 1014.7 |
| 20260502055308 | 13 | 9 | 9.7 | 25.7 | 0.00 | 0.00 | 0.00 | 54 | 1014.7 |
| 20260502055216 | 13 | 28 | 12.9 | 25.7 | 0.00 | 0.00 | 0.00 | 54 | 1014.8 |
| 20260502055143 | 13 | 360 | 12.9 | 25.7 | 0.00 | 0.00 | 0.00 | 54 | 1014.8 |
| 20260502055050 | 13 | 13 | 14.5 | 25.7 | 0.00 | 0.00 | 0.00 | 54 | 1014.7 |
| 20260502054809 | 13 | 344 | 14.5 | 25.7 | 0.00 | 0.00 | 0.00 | 53 | 1014.6 |
| 20260502054717 | 13 | 360 | 16.1 | 25.7 | 0.00 | 0.00 | 0.00 | 53 | 1014.6 |
| 20260502054644 | 13 | 26 | 16.1 | 25.7 | 0.00 | 0.00 | 0.00 | 53 | 1014.6 |
| 20260502054510 | 13 | 5 | 16.1 | 25.7 | 0.00 | 0.00 | 0.00 | 53 | 1014.4 |
| 20260502054418 | 13 | 360 | 16.1 | 25.7 | 0.00 | 0.00 | 0.00 | 54 | 1014.5 |
| 20260502054324 | 13 | 42 | 14.5 | 25.7 | 0.00 | 0.00 | 0.00 | 53 | 1014.5 |
| 20260502054215 | 13 | 5 | 16.1 | 25.7 | 0.00 | 0.00 | 0.00 | 53 | 1014.5 |
| 20260502054124 | 13 | 350 | 16.1 | 25.7 | 0.00 | 0.00 | 0.00 | 53 | 1014.5 |
| 20260502054010 | 13 | 13 | 16.1 | 25.7 | 0.00 | 0.00 | 0.00 | 53 | 1014.4 |
| 20260502053918 | 13 | 13 | 16.1 | 25.7 | 0.00 | 0.00 | 0.00 | 53 | 1014.4 |
| 20260502053825 | 13 | 5 | 17.7 | 25.7 | 0.00 | 0.00 | 0.00 | 52 | 1014.4 |
| 20260502053711 | 13 | 15 | 16.1 | 25.7 | 0.00 | 0.00 | 0.00 | 53 | 1014.5 |
| 20260502053618 | 13 | 355 | 16.1 | 25.7 | 0.00 | 0.00 | 0.00 | 52 | 1014.4 |
| 20260502053553 | 13 | 360 | 14.5 | 25.7 | 0.00 | 0.00 | 0.00 | 53 | 1014.4 |
| 20260502053325 | 13 | 20 | 14.5 | 25.7 | 0.00 | 0.00 | 0.00 | 52 | 1014.6 |
| 20260502053213 | 13 | 5 | 16.1 | 25.7 | 0.00 | 0.00 | 0.00 | 52 | 1014.7 |
| 20260502053122 | 13 | 24 | 17.7 | 25.7 | 0.00 | 0.00 | 0.00 | 52 | 1014.7 |
| 20260502053012 | 13 | 38 | 17.7 | 24.1 | 0.00 | 0.00 | 0.00 | 53 | 1014.6 |
| 20260502052920 | 13 | 360 | 16.1 | 24.1 | 0.00 | 0.00 | 0.00 | 52 | 1014.6 |
| 20260502052848 | 13 | 22 | 12.9 | 24.1 | 0.00 | 0.00 | 0.00 | 52 | 1014.6 |
| 20260502052716 | 13 | 355 | 14.5 | 24.1 | 0.00 | 0.00 | 0.00 | 52 | 1014.5 |
| 20260502052643 | 13 | 13 | 14.5 | 24.1 | 0.00 | 0.00 | 0.00 | 52 | 1014.5 |
| 20260502052510 | 13 | 28 | 14.5 | 24.1 | 0.00 | 0.00 | 0.00 | 52 | 1014.4 |
| 20260502052422 | 13 | 22 | 16.1 | 24.1 | 0.00 | 0.00 | 0.00 | 52 | 1014.4 |
| 20260502052310 | 13 | 360 | 17.7 | 24.1 | 0.00 | 0.00 | 0.00 | 52 | 1014.4 |
| 20260502052217 | 13 | 10 | 16.1 | 24.1 | 0.00 | 0.00 | 0.00 | 52 | 1014.5 |
| 20260502052125 | 13 | 355 | 12.9 | 24.1 | 0.00 | 0.00 | 0.00 | 52 | 1014.5 |
| 20260502052055 | 13 | 318 | 12.9 | 24.1 | 0.00 | 0.00 | 0.00 | 52 | 1014.4 |
| 20260502051812 | 13 | 355 | 16.1 | 24.1 | 0.00 | 0.00 | 0.00 | 52 | 1014.6 |
| 20260502051719 | 13 | 5 | 16.1 | 24.1 | 0.00 | 0.00 | 0.00 | 52 | 1014.5 |
| 20260502051628 | 13 | 32 | 17.7 | 24.1 | 0.00 | 0.00 | 0.00 | 52 | 1014.5 |
| 20260502051514 | 13 | 360 | 16.1 | 24.1 | 0.00 | 0.00 | 0.00 | 52 | 1014.5 |
| 20260502051442 | 13 | 11 | 12.9 | 24.1 | 0.00 | 0.00 | 0.00 | 51 | 1014.5 |
| 20260502051347 | 13 | 42 | 12.9 | 24.1 | 0.00 | 0.00 | 0.00 | 52 | 1014.5 |
| 20260502051218 | 13 | 360 | 12.9 | 20.9 | 0.00 | 0.00 | 0.00 | 52 | 1014.4 |
| 20260502051126 | 13 | 19 | 12.9 | 22.5 | 0.00 | 0.00 | 0.00 | 52 | 1014.4 |
| 20260502051014 | 13 | 19 | 12.9 | 22.5 | 0.00 | 0.00 | 0.00 | 52 | 1014.4 |
| 20260502050921 | 13 | 360 | 12.9 | 25.7 | 0.00 | 0.00 | 0.00 | 51 | 1014.4 |
| 20260502050810 | 13 | 5 | 11.3 | 25.7 | 0.00 | 0.00 | 0.00 | 52 | 1014.4 |
| 20260502050721 | 13 | 15 | 9.7 | 25.7 | 0.00 | 0.00 | 0.00 | 52 | 1014.4 |
| 20260502050628 | 13 | 5 | 9.7 | 25.7 | 0.00 | 0.00 | 0.00 | 52 | 1014.3 |
| 20260502050558 | 13 | 35 | 11.3 | 25.7 | 0.00 | 0.00 | 0.00 | 52 | 1014.4 |
| 20260502050311 | 13 | 360 | 16.1 | 25.7 | 0.00 | 0.00 | 0.00 | 51 | 1014.4 |
| 20260502050219 | 13 | 24 | 19.3 | 25.7 | 0.00 | 0.00 | 0.00 | 51 | 1014.4 |
| 20260502050109 | 13 | 355 | 17.7 | 25.7 | 0.00 | 0.00 | 0.00 | 50 | 1014.4 |
| 20260502050016 | 13 | 21 | 14.5 | 24.1 | 0.00 | 0.00 | 0.00 | 51 | 1014.3 |
| 20260502045921 | 13 | 13 | 12.9 | 22.5 | 0.00 | 0.00 | 0.00 | 50 | 1014.3 |
| 20260502045809 | 13 | 335 | 14.5 | 22.5 | 0.00 | 0.00 | 0.00 | 51 | 1014.3 |
| 20260502045716 | 13 | 43 | 16.1 | 22.5 | 0.00 | 0.00 | 0.00 | 51 | 1014.2 |
| 20260502045627 | 13 | 17 | 14.5 | 22.5 | 0.00 | 0.00 | 0.00 | 51 | 1014.2 |
| 20260502045515 | 13 | 28 | 12.9 | 22.5 | 0.00 | 0.00 | 0.00 | 51 | 1014.3 |
| 20260502045422 | 13 | 16 | 12.9 | 25.7 | 0.00 | 0.00 | 0.00 | 51 | 1014.3 |
| 20260502045309 | 13 | 9 | 12.9 | 25.7 | 0.00 | 0.00 | 0.00 | 50 | 1014.1 |
| 20260502045218 | 13 | 23 | 12.9 | 25.7 | 0.00 | 0.00 | 0.00 | 50 | 1014.1 |
| 20260502045145 | 13 | 16 | 14.5 | 25.7 | 0.00 | 0.00 | 0.00 | 50 | 1014.1 |
| 20260502045059 | 13 | 346 | 12.9 | 25.7 | 0.00 | 0.00 | 0.00 | 51 | 1014.0 |
| 20260502044812 | 13 | 22 | 11.3 | 25.7 | 0.00 | 0.00 | 0.00 | 51 | 1014.1 |
| 20260502044719 | 13 | 350 | 12.9 | 25.7 | 0.00 | 0.00 | 0.00 | 51 | 1014.1 |
| 20260502044647 | 13 | 360 | 14.5 | 25.7 | 0.00 | 0.00 | 0.00 | 51 | 1014.1 |
| 20260502044513 | 13 | 360 | 14.5 | 20.9 | 0.00 | 0.00 | 0.00 | 51 | 1014.0 |
| 20260502044424 | 13 | 9 | 12.9 | 19.3 | 0.00 | 0.00 | 0.00 | 51 | 1014.0 |
| 20260502044310 | 13 | 32 | 11.3 | 20.9 | 0.00 | 0.00 | 0.00 | 51 | 1014.0 |
| 20260502044217 | 13 | 28 | 11.3 | 20.9 | 0.00 | 0.00 | 0.00 | 51 | 1014.0 |
| 20260502044124 | 13 | 10 | 11.3 | 20.9 | 0.00 | 0.00 | 0.00 | 51 | 1014.0 |
| 20260502044031 | 13 | 37 | 12.9 | 20.9 | 0.00 | 0.00 | 0.00 | 51 | 1014.0 |
| 20260502043919 | 13 | 19 | 12.9 | 20.9 | 0.00 | 0.00 | 0.00 | 52 | 1014.0 |
| 20260502043831 | 13 | 355 | 11.3 | 20.9 | 0.00 | 0.00 | 0.00 | 51 | 1014.0 |
| 20260502043737 | 13 | 10 | 9.7 | 20.9 | 0.00 | 0.00 | 0.00 | 51 | 1014.0 |
| 20260502043623 | 13 | 18 | 12.9 | 20.9 | 0.00 | 0.00 | 0.00 | 51 | 1014.0 |
| 20260502043555 | 13 | 24 | 14.5 | 20.9 | 0.00 | 0.00 | 0.00 | 51 | 1014.1 |
| 20260502043348 | 13 | 33 | 14.5 | 22.5 | 0.00 | 0.00 | 0.00 | 51 | 1014.1 |
| 20260502043219 | 13 | 28 | 12.9 | 22.5 | 0.00 | 0.00 | 0.00 | 52 | 1014.1 |
| 20260502043147 | 13 | 13 | 11.3 | 22.5 | 0.00 | 0.00 | 0.00 | 51 | 1014.1 |
| 20260502043014 | 13 | 9 | 11.3 | 22.5 | 0.00 | 0.00 | 0.00 | 51 | 1014.1 |
| 20260502042942 | 13 | 9 | 11.3 | 22.5 | 0.00 | 0.00 | 0.00 | 51 | 1014.1 |
| 20260502042810 | 13 | 343 | 11.3 | 22.5 | 0.00 | 0.00 | 0.00 | 52 | 1014.0 |
| 20260502042738 | 13 | 5 | 14.5 | 22.5 | 0.00 | 0.00 | 0.00 | 52 | 1014.0 |
| 20260502042625 | 13 | 27 | 14.5 | 22.5 | 0.00 | 0.00 | 0.00 | 52 | 1014.0 |
| 20260502042516 | 13 | 5 | 12.9 | 19.3 | 0.00 | 0.00 | 0.00 | 52 | 1014.0 |
| 20260502042423 | 13 | 335 | 11.3 | 16.1 | 0.00 | 0.00 | 0.00 | 51 | 1014.0 |
| 20260502042311 | 13 | 38 | 9.7 | 16.1 | 0.00 | 0.00 | 0.00 | 52 | 1014.1 |
| 20260502042238 | 13 | 5 | 8.0 | 16.1 | 0.00 | 0.00 | 0.00 | 52 | 1014.1 |
| 20260502042124 | 13 | 42 | 8.0 | 16.1 | 0.00 | 0.00 | 0.00 | 52 | 1014.1 |
| 20260502042058 | 13 | 24 | 8.0 | 16.1 | 0.00 | 0.00 | 0.00 | 52 | 1014.1 |
| 20260502041833 | 13 | 26 | 9.7 | 16.1 | 0.00 | 0.00 | 0.00 | 52 | 1014.1 |
| 20260502041719 | 13 | 24 | 9.7 | 16.1 | 0.00 | 0.00 | 0.00 | 53 | 1014.2 |
| 20260502041626 | 13 | 46 | 9.7 | 16.1 | 0.00 | 0.00 | 0.00 | 53 | 1014.2 |
| 20260502041513 | 13 | 36 | 9.7 | 16.1 | 0.00 | 0.00 | 0.00 | 53 | 1014.1 |
| 20260502041421 | 13 | 30 | 8.0 | 14.5 | 0.00 | 0.00 | 0.00 | 53 | 1014.1 |
| 20260502041310 | 13 | 42 | 6.4 | 14.5 | 0.00 | 0.00 | 0.00 | 53 | 1014.1 |
| 20260502041238 | 13 | 9 | 8.0 | 14.5 | 0.00 | 0.00 | 0.00 | 53 | 1014.2 |
| 20260502041125 | 13 | 31 | 8.0 | 16.1 | 0.00 | 0.00 | 0.00 | 53 | 1014.2 |
| 20260502041012 | 13 | 355 | 8.0 | 16.1 | 0.00 | 0.00 | 0.00 | 54 | 1014.1 |
| 20260502040921 | 14 | 31 | 8.0 | 16.1 | 0.00 | 0.00 | 0.00 | 54 | 1014.1 |
| 20260502040811 | 13 | 5 | 8.0 | 16.1 | 0.00 | 0.00 | 0.00 | 54 | 1014.4 |
| 20260502040719 | 13 | 22 | 9.7 | 16.1 | 0.00 | 0.00 | 0.00 | 54 | 1014.3 |
| 20260502040626 | 13 | 24 | 9.7 | 16.1 | 0.00 | 0.00 | 0.00 | 53 | 1014.3 |
| 20260502040556 | 13 | 34 | 9.7 | 16.1 | 0.00 | 0.00 | 0.00 | 54 | 1014.2 |
| 20260502040309 | 13 | 14 | 8.0 | 17.7 | 0.00 | 0.00 | 0.00 | 53 | 1014.1 |
| 20260502040220 | 14 | 11 | 9.7 | 17.7 | 0.00 | 0.00 | 0.00 | 53 | 1014.1 |
| 20260502040127 | 14 | 17 | 8.0 | 17.7 | 0.00 | 0.00 | 0.00 | 54 | 1014.2 |
| 20260502040014 | 14 | 24 | 8.0 | 17.7 | 0.00 | 0.00 | 0.00 | 55 | 1014.2 |
| 20260502035921 | 14 | 12 | 8.0 | 17.7 | 0.00 | 0.00 | 0.00 | 55 | 1014.2 |
| 20260502035809 | 14 | 5 | 9.7 | 17.7 | 0.00 | 0.00 | 0.00 | 55 | 1014.3 |
| 20260502035720 | 14 | 16 | 11.3 | 17.7 | 0.00 | 0.00 | 0.00 | 55 | 1014.3 |
| 20260502035627 | 14 | 10 | 11.3 | 17.7 | 0.00 | 0.00 | 0.00 | 55 | 1014.3 |
| 20260502035535 | 14 | 13 | 11.3 | 17.7 | 0.00 | 0.00 | 0.00 | 55 | 1014.3 |
| 20260502035421 | 14 | 11 | 11.3 | 17.7 | 0.00 | 0.00 | 0.00 | 55 | 1014.3 |
| 20260502035327 | 14 | 13 | 11.3 | 17.7 | 0.00 | 0.00 | 0.00 | 55 | 1014.1 |
| 20260502035214 | 14 | 38 | 11.3 | 17.7 | 0.00 | 0.00 | 0.00 | 56 | 1014.1 |
| 20260502035126 | 14 | 41 | 11.3 | 17.7 | 0.00 | 0.00 | 0.00 | 56 | 1014.1 |
| 20260502035056 | 14 | 360 | 9.7 | 16.1 | 0.00 | 0.00 | 0.00 | 56 | 1014.0 |
| 20260502034810 | 14 | 5 | 9.7 | 16.1 | 0.00 | 0.00 | 0.00 | 57 | 1014.1 |
| 20260502034738 | 14 | 5 | 9.7 | 16.1 | 0.00 | 0.00 | 0.00 | 57 | 1014.0 |
| 20260502034623 | 14 | 5 | 9.7 | 16.1 | 0.00 | 0.00 | 0.00 | 56 | 1014.0 |
| 20260502034513 | 14 | 21 | 9.7 | 16.1 | 0.00 | 0.00 | 0.00 | 57 | 1014.1 |
| 20260502034419 | 14 | 40 | 8.0 | 16.1 | 0.00 | 0.00 | 0.00 | 57 | 1014.2 |
| 20260502034327 | 14 | 14 | 8.0 | 16.1 | 0.00 | 0.00 | 0.00 | 57 | 1014.2 |
| 20260502034216 | 14 | 12 | 8.0 | 16.1 | 0.00 | 0.00 | 0.00 | 57 | 1014.1 |
| 20260502034123 | 14 | 22 | 8.0 | 16.1 | 0.00 | 0.00 | 0.00 | 57 | 1014.1 |
| 20260502034012 | 14 | 24 | 9.7 | 16.1 | 0.00 | 0.00 | 0.00 | 56 | 1014.1 |
| 20260502033924 | 14 | 38 | 9.7 | 16.1 | 0.00 | 0.00 | 0.00 | 56 | 1014.1 |
| 20260502033813 | 14 | 30 | 9.7 | 16.1 | 0.00 | 0.00 | 0.00 | 56 | 1014.0 |
| 20260502033721 | 14 | 25 | 9.7 | 16.1 | 0.00 | 0.00 | 0.00 | 57 | 1014.0 |
| 20260502033608 | 14 | 34 | 8.0 | 17.7 | 0.00 | 0.00 | 0.00 | 56 | 1014.1 |
| 20260502033542 | 14 | 30 | 8.0 | 17.7 | 0.00 | 0.00 | 0.00 | 56 | 1014.1 |
| 20260502033316 | 14 | 26 | 8.0 | 17.7 | 0.00 | 0.00 | 0.00 | 57 | 1014.2 |
| 20260502033222 | 14 | 49 | 8.0 | 17.7 | 0.00 | 0.00 | 0.00 | 57 | 1014.2 |
| 20260502033109 | 14 | 28 | 8.0 | 17.7 | 0.00 | 0.00 | 0.00 | 58 | 1014.2 |
| 20260502033018 | 14 | 15 | 8.0 | 17.7 | 0.00 | 0.00 | 0.00 | 59 | 1014.3 |
| 20260502032908 | 14 | 59 | 9.7 | 17.7 | 0.00 | 0.00 | 0.00 | 58 | 1014.3 |
| 20260502032816 | 14 | 350 | 9.7 | 17.7 | 0.00 | 0.00 | 0.00 | 58 | 1014.3 |
| 20260502032723 | 14 | 16 | 9.7 | 17.7 | 0.00 | 0.00 | 0.00 | 59 | 1014.3 |
| 20260502032611 | 14 | 17 | 11.3 | 17.7 | 0.00 | 0.00 | 0.00 | 58 | 1014.2 |
| 20260502032518 | 14 | 13 | 11.3 | 17.7 | 0.00 | 0.00 | 0.00 | 58 | 1014.3 |
| 20260502032426 | 14 | 44 | 9.7 | 16.1 | 0.00 | 0.00 | 0.00 | 58 | 1014.3 |
| 20260502032336 | 14 | 5 | 9.7 | 16.1 | 0.00 | 0.00 | 0.00 | 58 | 1014.4 |
| 20260502032221 | 14 | 9 | 8.0 | 16.1 | 0.00 | 0.00 | 0.00 | 59 | 1014.4 |
| 20260502032128 | 14 | 22 | 9.7 | 16.1 | 0.00 | 0.00 | 0.00 | 59 | 1014.4 |
| 20260502032059 | 14 | 27 | 9.7 | 22.5 | 0.00 | 0.00 | 0.00 | 59 | 1014.4 |
| 20260502031813 | 14 | 51 | 8.0 | 22.5 | 0.00 | 0.00 | 0.00 | 60 | 1014.5 |
| 20260502031722 | 14 | 13 | 8.0 | 22.5 | 0.00 | 0.00 | 0.00 | 59 | 1014.5 |
| 20260502031609 | 14 | 18 | 9.7 | 22.5 | 0.00 | 0.00 | 0.00 | 60 | 1014.5 |
| 20260502031518 | 14 | 360 | 11.3 | 22.5 | 0.00 | 0.00 | 0.00 | 59 | 1014.5 |
| 20260502031446 | 14 | 22 | 11.3 | 22.5 | 0.00 | 0.00 | 0.00 | 60 | 1014.5 |
| 20260502031313 | 14 | 40 | 12.9 | 22.5 | 0.00 | 0.00 | 0.00 | 61 | 1014.6 |
| 20260502031220 | 14 | 16 | 9.7 | 16.1 | 0.00 | 0.00 | 0.00 | 61 | 1014.6 |
| 20260502031111 | 14 | 20 | 9.7 | 17.7 | 0.00 | 0.00 | 0.00 | 61 | 1014.6 |
| 20260502031020 | 14 | 11 | 11.3 | 19.3 | 0.00 | 0.00 | 0.00 | 61 | 1014.6 |
| 20260502030927 | 14 | 11 | 11.3 | 19.3 | 0.00 | 0.00 | 0.00 | 61 | 1014.6 |
| 20260502030814 | 14 | 36 | 9.7 | 19.3 | 0.00 | 0.00 | 0.00 | 61 | 1014.7 |
| 20260502030721 | 14 | 16 | 8.0 | 19.3 | 0.00 | 0.00 | 0.00 | 62 | 1014.7 |
| 20260502030613 | 14 | 9 | 9.7 | 19.3 | 0.00 | 0.00 | 0.00 | 62 | 1014.7 |
| 20260502030544 | 14 | 5 | 12.9 | 19.3 | 0.00 | 0.00 | 0.00 | 62 | 1014.7 |
| 20260502030318 | 14 | 5 | 11.3 | 19.3 | 0.00 | 0.00 | 0.00 | 63 | 1014.7 |
| 20260502030227 | 14 | 360 | 8.0 | 19.3 | 0.00 | 0.00 | 0.00 | 65 | 1014.7 |
| 20260502030114 | 15 | 19 | 6.4 | 19.3 | 0.00 | 0.00 | 0.00 | 64 | 1014.6 |
| 20260502030026 | 15 | 345 | 8.0 | 19.3 | 0.00 | 0.00 | 0.00 | 64 | 1014.6 |
| 20260502025913 | 15 | 5 | 11.3 | 19.3 | 0.00 | 0.00 | 0.00 | 64 | 1014.5 |
| 20260502025840 | 15 | 360 | 11.3 | 19.3 | 0.00 | 0.00 | 0.00 | 64 | 1014.6 |
| 20260502025726 | 15 | 26 | 11.3 | 19.3 | 0.00 | 0.00 | 0.00 | 65 | 1014.6 |
| 20260502025615 | 15 | 5 | 12.9 | 19.3 | 0.00 | 0.00 | 0.00 | 65 | 1014.5 |
| 20260502025523 | 15 | 355 | 12.9 | 19.3 | 0.00 | 0.00 | 0.00 | 62 | 1014.5 |
| 20260502025414 | 15 | 30 | 11.3 | 19.3 | 0.00 | 0.00 | 0.00 | 62 | 1014.6 |
| 20260502025322 | 15 | 35 | 11.3 | 17.7 | 0.00 | 0.00 | 0.00 | 61 | 1014.6 |
| 20260502025209 | 15 | 30 | 12.9 | 17.7 | 0.00 | 0.00 | 0.00 | 63 | 1014.5 |
| 20260502025118 | 15 | 340 | 12.9 | 19.3 | 0.00 | 0.00 | 0.00 | 62 | 1014.6 |
| 20260502025052 | 15 | 355 | 12.9 | 19.3 | 0.00 | 0.00 | 0.00 | 61 | 1014.6 |
| 20260502024827 | 15 | 37 | 11.3 | 19.3 | 0.00 | 0.00 | 0.00 | 59 | 1014.6 |
| 20260502024713 | 15 | 355 | 12.9 | 19.3 | 0.00 | 0.00 | 0.00 | 58 | 1014.6 |
| 20260502024621 | 15 | 13 | 12.9 | 19.3 | 0.00 | 0.00 | 0.00 | 58 | 1014.6 |
| 20260502024509 | 15 | 24 | 11.3 | 19.3 | 0.00 | 0.00 | 0.00 | 59 | 1014.5 |
| 20260502024436 | 15 | 360 | 12.9 | 20.9 | 0.00 | 0.00 | 0.00 | 58 | 1014.5 |
| 20260502024347 | 15 | 355 | 12.9 | 25.7 | 0.00 | 0.00 | 0.00 | 58 | 1014.5 |
| 20260502024234 | 15 | 360 | 12.9 | 25.7 | 0.00 | 0.00 | 0.00 | 58 | 1014.5 |
| 20260502024140 | 15 | 19 | 11.3 | 25.7 | 0.00 | 0.00 | 0.00 | 59 | 1014.5 |
| 20260502024027 | 15 | 13 | 9.7 | 25.7 | 0.00 | 0.00 | 0.00 | 59 | 1014.5 |
| 20260502023914 | 15 | 339 | 8.0 | 25.7 | 0.00 | 0.00 | 0.00 | 59 | 1014.5 |
| 20260502023821 | 15 | 15 | 9.7 | 25.7 | 0.00 | 0.00 | 0.00 | 59 | 1014.5 |
| 20260502023713 | 15 | 45 | 14.5 | 25.7 | 0.00 | 0.00 | 0.00 | 58 | 1014.4 |
| 20260502023639 | 15 | 11 | 14.5 | 25.7 | 0.00 | 0.00 | 0.00 | 58 | 1014.4 |
| 20260502023611 | 15 | 5 | 16.1 | 25.7 | 0.00 | 0.00 | 0.00 | 58 | 1014.4 |
| 20260502023322 | 15 | 9 | 11.3 | 24.1 | 0.00 | 0.00 | 0.00 | 58 | 1014.3 |
| 20260502023210 | 15 | 5 | 8.0 | 24.1 | 0.00 | 0.00 | 0.00 | 58 | 1014.3 |
| 20260502023123 | 15 | 350 | 12.9 | 24.1 | 0.00 | 0.00 | 0.00 | 58 | 1014.3 |
| 20260502023010 | 15 | 337 | 16.1 | 25.7 | 0.00 | 0.00 | 0.00 | 58 | 1014.4 |
| 20260502022918 | 15 | 5 | 16.1 | 25.7 | 0.00 | 0.00 | 0.00 | 58 | 1014.3 |
| 20260502022848 | 15 | 16 | 14.5 | 25.7 | 0.00 | 0.00 | 0.00 | 58 | 1014.3 |
| 20260502022714 | 15 | 5 | 11.3 | 25.7 | 0.00 | 0.00 | 0.00 | 58 | 1014.2 |
| 20260502022621 | 15 | 342 | 11.3 | 25.7 | 0.00 | 0.00 | 0.00 | 58 | 1014.2 |
| 20260502022533 | 15 | 360 | 14.5 | 25.7 | 0.00 | 0.00 | 0.00 | 58 | 1014.1 |
| 20260502022420 | 15 | 341 | 19.3 | 29.0 | 0.00 | 0.00 | 0.00 | 58 | 1014.1 |
| 20260502022309 | 15 | 355 | 17.7 | 29.0 | 0.00 | 0.00 | 0.00 | 58 | 1014.1 |
| 20260502022217 | 15 | 15 | 16.1 | 29.0 | 0.00 | 0.00 | 0.00 | 58 | 1014.1 |
| 20260502022125 | 15 | 5 | 16.1 | 29.0 | 0.00 | 0.00 | 0.00 | 58 | 1014.1 |
| 20260502022058 | 15 | 19 | 16.1 | 29.0 | 0.00 | 0.00 | 0.00 | 59 | 1014.1 |
| 20260502021833 | 15 | 15 | 17.7 | 29.0 | 0.00 | 0.00 | 0.00 | 59 | 1014.0 |
| 20260502021720 | 16 | 338 | 19.3 | 29.0 | 0.00 | 0.00 | 0.00 | 59 | 1014.0 |
| 20260502021608 | 16 | 16 | 17.7 | 29.0 | 0.00 | 0.00 | 0.00 | 60 | 1013.9 |
| 20260502021514 | 16 | 323 | 14.5 | 25.7 | 0.00 | 0.00 | 0.00 | 61 | 1013.9 |
| 20260502021421 | 16 | 51 | 12.9 | 25.7 | 0.00 | 0.00 | 0.00 | 62 | 1013.9 |
| 20260502021313 | 16 | 355 | 11.3 | 25.7 | 0.00 | 0.00 | 0.00 | 62 | 1013.9 |
| 20260502021220 | 16 | 5 | 12.9 | 25.7 | 0.00 | 0.00 | 0.00 | 62 | 1013.9 |
| 20260502021127 | 16 | 360 | 14.5 | 25.7 | 0.00 | 0.00 | 0.00 | 63 | 1013.9 |
| 20260502021015 | 16 | 25 | 16.1 | 25.7 | 0.00 | 0.00 | 0.00 | 62 | 1014.0 |
| 20260502020922 | 16 | 355 | 16.1 | 25.7 | 0.00 | 0.00 | 0.00 | 63 | 1014.0 |
| 20260502020812 | 16 | 22 | 11.3 | 25.7 | 0.00 | 0.00 | 0.00 | 64 | 1014.0 |
| 20260502020718 | 16 | 15 | 9.7 | 17.7 | 0.00 | 0.00 | 0.00 | 63 | 1013.9 |
| 20260502020625 | 16 | 20 | 11.3 | 17.7 | 0.00 | 0.00 | 0.00 | 63 | 1013.9 |
| 20260502020555 | 16 | 15 | 11.3 | 17.7 | 0.00 | 0.00 | 0.00 | 63 | 1014.0 |
| 20260502020313 | 16 | 360 | 12.9 | 25.7 | 0.00 | 0.00 | 0.00 | 64 | 1013.9 |
| 20260502020220 | 16 | 5 | 11.3 | 25.7 | 0.00 | 0.00 | 0.00 | 64 | 1013.9 |
| 20260502020109 | 16 | 5 | 9.7 | 25.7 | 0.00 | 0.00 | 0.00 | 64 | 1013.7 |
| 20260502020016 | 16 | 5 | 9.7 | 25.7 | 0.00 | 0.00 | 0.00 | 64 | 1013.7 |
| 20260502015943 | 16 | 360 | 9.7 | 25.7 | 0.00 | 0.00 | 0.00 | 64 | 1013.7 |
| 20260502015810 | 16 | 14 | 12.9 | 25.7 | 0.00 | 0.00 | 0.00 | 64 | 1013.6 |
| 20260502015721 | 16 | 5 | 16.1 | 25.7 | 0.00 | 0.00 | 0.00 | 64 | 1013.6 |
| 20260502015608 | 16 | 340 | 14.5 | 25.7 | 0.00 | 0.00 | 0.00 | 65 | 1013.7 |
| 20260502015517 | 16 | 9 | 12.9 | 22.5 | 0.00 | 0.00 | 0.00 | 66 | 1013.7 |
| 20260502015423 | 16 | 355 | 11.3 | 17.7 | 0.00 | 0.00 | 0.00 | 66 | 1013.7 |
| 20260502015331 | 16 | 326 | 12.9 | 17.7 | 0.00 | 0.00 | 0.00 | 67 | 1013.6 |
| 20260502015237 | 16 | 5 | 9.7 | 17.7 | 0.00 | 0.00 | 0.00 | 66 | 1013.7 |
| 20260502015125 | 16 | 336 | 9.7 | 17.7 | 0.00 | 0.00 | 0.00 | 67 | 1013.7 |
| 20260502015057 | 16 | 355 | 9.7 | 14.5 | 0.00 | 0.00 | 0.00 | 67 | 1013.6 |
| 20260502014810 | 16 | 5 | 9.7 | 14.5 | 0.00 | 0.00 | 0.00 | 66 | 1013.7 |
| 20260502014717 | 16 | 355 | 9.7 | 14.5 | 0.00 | 0.00 | 0.00 | 67 | 1013.7 |
| 20260502014624 | 16 | 9 | 8.0 | 14.5 | 0.00 | 0.00 | 0.00 | 66 | 1013.7 |
| 20260502014514 | 16 | 355 | 9.7 | 14.5 | 0.00 | 0.00 | 0.00 | 67 | 1013.6 |
| 20260502014441 | 16 | 348 | 9.7 | 14.5 | 0.00 | 0.00 | 0.00 | 67 | 1013.7 |
| 20260502014347 | 16 | 346 | 11.3 | 14.5 | 0.00 | 0.00 | 0.00 | 66 | 1013.7 |
| 20260502014213 | 16 | 338 | 8.0 | 14.5 | 0.00 | 0.00 | 0.00 | 66 | 1013.7 |
| 20260502014119 | 16 | 360 | 8.0 | 14.5 | 0.00 | 0.00 | 0.00 | 66 | 1013.7 |
| 20260502014026 | 16 | 355 | 8.0 | 14.5 | 0.00 | 0.00 | 0.00 | 66 | 1013.7 |
| 20260502013917 | 16 | 5 | 8.0 | 19.3 | 0.00 | 0.00 | 0.00 | 66 | 1013.7 |
| 20260502013824 | 16 | 355 | 8.0 | 19.3 | 0.00 | 0.00 | 0.00 | 66 | 1013.7 |
| 20260502013712 | 16 | 345 | 8.0 | 19.3 | 0.00 | 0.00 | 0.00 | 66 | 1013.7 |
| 20260502013620 | 16 | 343 | 8.0 | 19.3 | 0.00 | 0.00 | 0.00 | 65 | 1013.7 |
| 20260502013551 | 16 | 360 | 6.4 | 19.3 | 0.00 | 0.00 | 0.00 | 65 | 1013.7 |
| 20260502013309 | 16 | 10 | 9.7 | 19.3 | 0.00 | 0.00 | 0.00 | 65 | 1013.6 |
| 20260502013216 | 16 | 12 | 9.7 | 19.3 | 0.00 | 0.00 | 0.00 | 65 | 1013.5 |
| 20260502013124 | 16 | 5 | 9.7 | 19.3 | 0.00 | 0.00 | 0.00 | 65 | 1013.5 |
| 20260502013011 | 16 | 9 | 6.4 | 14.5 | 0.00 | 0.00 | 0.00 | 65 | 1013.6 |
| 20260502012918 | 16 | 17 | 8.0 | 14.5 | 0.00 | 0.00 | 0.00 | 65 | 1013.7 |
| 20260502012810 | 16 | 360 | 11.3 | 14.5 | 0.00 | 0.00 | 0.00 | 65 | 1013.6 |
| 20260502012717 | 16 | 22 | 9.7 | 14.5 | 0.00 | 0.00 | 0.00 | 65 | 1013.7 |
| 20260502012626 | 16 | 13 | 8.0 | 14.5 | 0.00 | 0.00 | 0.00 | 65 | 1013.7 |
| 20260502012513 | 16 | 360 | 6.4 | 14.5 | 0.00 | 0.00 | 0.00 | 66 | 1013.7 |
| 20260502012421 | 16 | 343 | 8.0 | 14.5 | 0.00 | 0.00 | 0.00 | 66 | 1013.7 |
| 20260502012312 | 16 | 26 | 8.0 | 14.5 | 0.00 | 0.00 | 0.00 | 66 | 1013.6 |
| 20260502012219 | 16 | 5 | 8.0 | 14.5 | 0.00 | 0.00 | 0.00 | 66 | 1013.8 |
| 20260502012127 | 16 | 17 | 8.0 | 14.5 | 0.00 | 0.00 | 0.00 | 66 | 1013.8 |
| 20260502012058 | 16 | 351 | 9.7 | 14.5 | 0.00 | 0.00 | 0.00 | 66 | 1013.7 |
| 20260502011812 | 16 | 340 | 9.7 | 14.5 | 0.00 | 0.00 | 0.00 | 66 | 1013.7 |
| 20260502011723 | 16 | 342 | 9.7 | 14.5 | 0.00 | 0.00 | 0.00 | 66 | 1013.7 |
| 20260502011610 | 16 | 321 | 9.7 | 12.9 | 0.00 | 0.00 | 0.00 | 65 | 1013.7 |
| 20260502011517 | 16 | 342 | 8.0 | 12.9 | 0.00 | 0.00 | 0.00 | 65 | 1013.7 |
| 20260502011426 | 16 | 340 | 8.0 | 12.9 | 0.00 | 0.00 | 0.00 | 65 | 1013.7 |
| 20260502011313 | 16 | 348 | 8.0 | 12.9 | 0.00 | 0.00 | 0.00 | 65 | 1013.7 |
| 20260502011241 | 16 | 336 | 8.0 | 12.9 | 0.00 | 0.00 | 0.00 | 65 | 1013.7 |
| 20260502011112 | 16 | 343 | 8.0 | 12.9 | 0.00 | 0.00 | 0.00 | 65 | 1013.7 |
| 20260502011019 | 16 | 343 | 8.0 | 12.9 | 0.00 | 0.00 | 0.00 | 65 | 1013.6 |
| 20260502010926 | 16 | 337 | 6.4 | 12.9 | 0.00 | 0.00 | 0.00 | 65 | 1013.6 |
| 20260502010834 | 16 | 307 | 4.8 | 8.0 | 0.00 | 0.00 | 0.00 | 65 | 1013.7 |
| 20260502010721 | 17 | 323 | 4.8 | 8.0 | 0.00 | 0.00 | 0.00 | 65 | 1013.7 |
| 20260502010627 | 17 | 330 | 4.8 | 8.0 | 0.00 | 0.00 | 0.00 | 65 | 1013.7 |
| 20260502010601 | 17 | 341 | 4.8 | 6.4 | 0.00 | 0.00 | 0.00 | 65 | 1013.7 |
| 20260502010314 | 17 | 322 | 4.8 | 6.4 | 0.00 | 0.00 | 0.00 | 65 | 1013.6 |
| 20260502010222 | 17 | 338 | 4.8 | 6.4 | 0.00 | 0.00 | 0.00 | 65 | 1013.6 |